     2              OBSERVATION DATA    G (GPS)             RINEX VERSION / TYPE
ASHTORIN ICS 05 - DEC - 99 18:28                            PGM / RUN BY / DATE
Rover                                                       COMMENT
????                                                        MARKER NAME
                                                            MARKER NUMBER
RLW ICS                                                     OBSERVER / AGENCY
217 ASHTECH Z-XII3 4J00 1C63                                REC # / TYPE / VERS
742 choke ring                                              ANT # / TYPE
 -2325858.5400 -4725276.7600  3587277.1900                  APPROX POSITION XYZ
        2.0000        0.0000        0.0000                  ANTENNA: DELTA H/E/N
     1     1                                                WAVELENGTH FACT L1/2
     7    L1    L2    C1    P1    P2    D1    D2            # / TYPES OF OBSERV
    10.0000                                                 INTERVAL
                                                            LEAP SECONDS
  1980     4    14    19    59   10.000000      GPS         TIME OF FIRST OBS
  1980     4    14    20    23   40.000000      GPS         TIME OF LAST OBS
                                                            END OF HEADER
 80  4 14 19 59 10.0000000  0  5G01G03G19G18G16                      0.001349942
     14552.34919      5377.21358  18189764.871           0.0005   18189776.3645
     -1169.109        -910.994
    -13544.59919         0.000 1  19952419.854           0.000           0.000
      1886.651        1470.118
    -17493.84219         0.000 1  18187287.597           0.000           0.000
      2016.273        1571.122
    -16885.41719         0.000 1  17002863.706           0.000           0.000
      1958.651        1526.222
      7134.81319         0.000 1  17976072.620           0.000           0.000
     -1546.261       -1204.879
 80  4 14 19 59 20.0000000  0  5G01G03G19G18G16                      0.001346099
     26251.469 9     14493.37158  18191991.290    18191992.1895   18192001.5535
     -1171.217        -912.637
    -32401.464 9     -5655.95752  19948826.297           0.0005          0.0005
      1884.179        1468.191
    -37658.241 9    -15501.57358  18183450.543    18183451.8545   18183460.9255
      2016.093        1570.982
    -36461.142 9     -5887.27558  16999137.685           0.0005          0.0005
      1956.003        1524.158
     22610.837 9     11897.14258  17979016.214    17979016.3415   17979026.5305
     -1549.443       -1207.358
 80  4 14 19 59 30.0000000  3  2
E25S                                                        MARKER NAME
--> THIS IS THE START OF A NEW SITE <---                    COMMENT
 80  4 14 19 59 30.0000000  0  5G01G03G19G18G16                      0.001342270
     37984.499 9     23635.96548  18194224.026    18194224.8534   18194234.2844
     -1175.087        -915.652
    -51220.766 9    -20320.32042  19945241.428           0.0004          0.0004
      1879.921        1464.874
    -57808.946 9    -31203.42248  18179616.130    18179617.1735   18179626.4234
      2014.305        1569.588
    -55997.033 9    -21109.93559  16995420.174    16995420.7914   16995428.7495
      1951.477        1520.631
     38131.391 9     23991.04848  17981969.624    17981970.2225   17981979.8474
     -1554.337       -1211.172
 80  4 14 19 59 40.0000000  0  6G01G22G03G19G18G16                   0.001338381
     49749.616 9     32803.56348  18196463.310    18196463.6784   18196473.1264
     -1178.570        -918.366
     41951.36119     13272.35352  20218150.838           0.0005          0.0005
     -2914.503       -2271.041
    -70004.113 9    -34956.43945  19941666.952           0.0004          0.0004
      1876.074        1461.876
    -77948.333 9    -46896.44848  18175784.185    18175784.6414   18175793.9984
      2012.893        1568.488
    -75494.012 9    -36302.38149  16991710.340    16991710.4285   16991718.5204
      1947.267        1517.351
     53693.916 9     36117.66448  17984931.320    17984931.6054   17984941.2564
     -1558.826       -1214.670
 80  4 14 19 59 50.0000000  0  7G01G22G03G19G18G16G31                0.001334135
     61550.872 9     41999.32548  18198709.220    18198709.3654   18198718.8084
     -1181.900        -920.961
     71102.715 9     35987.69642  20223698.176           0.0004          0.0004
     -2916.040       -2272.239
    -88746.637 9    -49560.99846  19938101.255           0.0004   19938115.4334
      1872.159        1458.825
    -98072.485 9    -62577.60948  18171954.959    18171955.1034   18171964.4514
      2011.717        1567.572
    -94947.769 9    -51461.15049  16988008.627    16988008.5774   16988016.6314
      1943.252        1514.222
     69303.268 9     48280.77248  17987902.016    17987902.0214   17987911.6044
     -1563.252       -1218.118
     -9526.36019         0.000 1  20177880.288           0.000           0.000
      3462.589        2698.121
 80  4 14 20  0  0.0000000  0  7G01G22G03G19G18G16G31                0.001330330
     73389.474 9     51224.19848  18200962.199    18200962.1994   18200971.6564
     -1186.473        -924.524
    100272.919 9     58718.30245  20229248.712           0.0004          0.0004
     -2918.636       -2274.262
   -107444.871 9    -64131.04846  19934543.368    19934542.8724   19934555.7024
      1866.856        1454.693
   -118180.209 9    -78245.95148  18168128.674    18168128.6974   18168138.0424
      2009.155        1565.575
   -114356.988 9    -66585.21049  16984315.272    16984315.1174   16984323.1564
      1938.002        1510.131
     84960.600 9     60481.27248  17990881.701    17990881.5434   17990891.1204
     -1568.848       -1222.479
    -44146.955 9    -21125.61552  20171296.941           0.0005          0.0005
      3460.702        2696.651
 80  4 14 20  0 10.0000000  0  8G01G22G03G19G18G16G31G27             0.000743757
     85259.616 9     60473.62748  21800730.628    21800730.5004   21800739.9864
     -1191.062        -928.100
    129432.715 9     81440.04946  23832307.413           0.0004          0.0004
     -2921.022       -2276.121
   -126069.244 9    -78643.52956  23528508.978    23528508.8574   23528522.3835
      1861.851        1450.793
   -138238.761 9    -93875.99648  21761821.232    21761821.1514   21761830.4654
      2006.696        1563.659
   -133692.021 9    -81651.47349  20578145.487    20578145.2544   20578153.2914
      1933.053        1506.275
    100654.197 9     72710.01448  21591377.701    21591377.4484   21591386.9864
     -1574.295       -1226.723
    -78706.226 9    -48054.91342  23762230.993           0.0004          0.0004
      3458.823        2695.187
    -28816.53819    -12855.45252  24132324.691           0.0005          0.0005
      2836.905        2210.575
 80  4 14 20  0 20.0000000  0  9G01G22G03G19G18G16G31G27G14          0.000739767
     97188.973 9     69769.20448  21803000.791    21803000.6084   21803010.0804
     -1194.788        -931.004
    158650.755 9    104207.16746  23837867.650           0.0004   23837880.4774
     -2922.585       -2277.339
   -144665.910 9    -93134.41646  23524970.241    23524970.9815   23524983.7494
      1857.486        1447.392
   -158297.127 9   -109505.89048  21758004.297    21758004.1594   21758013.4604
      2004.973        1562.317
   -153001.937 9    -96698.15849  20574470.989    20574470.7104   20574478.7474
      1928.938        1503.069
    116420.943 9     84995.75948  21594378.122    21594377.7924   21594387.2974
     -1579.075       -1230.448
   -113288.938 9    -75002.25846  23755649.441           0.0004          0.0004
      3457.724        2694.330
    -57183.176 9    -34959.31742  24126923.687           0.0004          0.0004
      2836.415        2210.194
     36421.03119      9224.82952  23893334.274           0.0005          0.0005
     -3112.333       -2425.195
 80  4 14 20  0 30.0000000  0  9G01G22G03G19G18G16G31G27G14          0.000735959
    109156.820 9     79094.78048  21805278.273    21805278.0354   21805287.4984
     -1199.315        -934.531
    187884.280 9    126986.45346  23843430.771    23843431.3964   23843442.7694
     -2924.746       -2279.023
   -163217.394 9   -107590.09346  23521440.171    23521440.6424   23521453.3524
      1852.204        1443.276
   -178336.788 9   -125121.20448  21754190.933    21754190.7384   21754200.0224
      2002.386        1560.301
   -172269.041 9   -111711.48049  20570804.630    20570804.3364   20570812.3714
      1923.938        1499.172
    132237.976 9     97320.69848  21597388.093    21597387.7144   21597397.1814
     -1584.891       -1234.980
   -147859.226 9   -101940.17346  23749071.361    23749071.1704   23749084.5214
      3455.755        2692.796
    -85543.896 9    -57059.10346  24121527.896           0.0004          0.0004
      2835.132        2209.194
     67548.684 9     33480.13942  23899257.019           0.0004          0.0004
     -3113.752       -2426.300
 80  4 14 20  0 40.0000000  0  9G01G22G03G19G18G16G31G27G14          0.000732154
    121163.190 9     88450.37548  21807563.092    21807562.8194   21807572.2624
     -1203.028        -937.424
    217133.153 9    149777.73146  23848996.802    23848996.0134   23849010.0974
     -2926.155       -2280.121
   -181721.611 9   -122008.94346  23517919.038    23517919.3214   23517931.9524
      1847.548        1439.648
   -198357.852 9   -140722.02548  21750381.089    21750380.8664   21750390.1264
      2000.761        1559.035
   -191493.504 9   -126691.57249  20567146.365    20567146.0244   20567154.0804
      1919.914        1496.037
    148106.202 9    109685.53348  21600407.809    21600407.3704   21600416.8264
     -1589.822       -1238.822
   -182416.593 9   -128867.99056  23742495.485    23742495.0434   23742508.4795
      3454.647        2691.933
   -113898.632 9    -79153.77346  24116132.838           0.0004          0.0004
      2834.716        2208.870
     98684.030 9     57741.57045  23905181.868           0.0004          0.0004
     -3114.346       -2426.763
 80  4 14 20  0 50.0000000  0  9G01G22G03G19G18G16G31G27G14          0.000728347
    133209.952 9     97837.44348  21809855.578    21809855.2734   21809864.6944
     -1205.944        -939.697
    246399.094 9    172582.29056  23854566.024    23854565.6625   23854580.0145
     -2926.684       -2280.533
   -200176.684 9   -136389.49546  23514407.236    23514407.4494   23514419.7654
      1843.822        1436.744
   -218360.319 9   -156308.36048  21746574.781    21746574.5334   21746583.7714
      2000.109        1558.526
   -210675.638 9   -141638.68249  20563496.156    20563495.8024   20563503.8544
      1916.938        1493.718
    164026.324 9    122090.79248  21603437.344    21603436.8844   21603446.3474
     -1593.772       -1241.900
   -216960.258 9   -155785.11746  23735922.145    23735922.2035   23735934.9234
      3454.493        2691.813
   -142247.141 9   -101243.47046  24110737.987           0.0004          0.0004
      2835.390        2209.395
    129828.509 9     82009.93046  23911108.681           0.0004          0.0004
     -3114.146       -2426.607
 80  4 14 20  1  0.0000000  0  9G01G22G03G19G18G16G31G27G14          0.000724539
    145297.291 9    107256.12748  21812155.787    21812155.4494   21812164.8484
     -1211.408        -943.954
    275681.445 9    195399.61546  23860138.309    23860137.7694   23860152.2324
     -2929.762       -2282.931
   -218583.463 9   -150732.42546  23510904.605    23510904.7684   23510916.9714
      1837.601        1431.897
   -238345.207 9   -171880.99548  21742771.807    21742771.5254   21742780.7614
      1996.945        1556.061
   -229817.710 9   -156554.57649  20559853.555    20559853.1864   20559861.2414
      1911.574        1489.538
    179996.019 9    134534.69348  21606476.347    21606475.8334   21606485.2894
     -1600.078       -1246.814
   -251492.291 9   -182693.18546  23729350.966    23729350.9124   23729363.7754
      3451.987        2689.860
   -170591.463 9   -123329.88946  24105344.573           0.0004   24105358.4264
      2833.589        2207.991
    160981.903 9    106285.19746  23917037.094    23917038.0194   23917051.5454
     -3116.457       -2428.408
 80  4 14 20  1 10.0000000  0  9G01G22G03G19G18G16G31G27G14          0.000720731
    157426.264 9    116707.25148  21814463.914    21814463.5594   21814472.9314
     -1215.057        -946.798
    304982.682 8    218231.64246  23865714.144    23865713.2624   23865728.0784
     -2931.195       -2284.048
   -236939.187 9   -165035.55846  23507411.685    23507411.7584   23507424.0874
      1832.809        1428.163
   -258310.914 9   -187438.68948  21738972.487    21738972.1764   21738981.4104
      1995.507        1554.941
   -248919.098 9   -171438.76749  20556218.701    20556218.3034   20556226.3704
      1908.010        1486.761
    196016.821 9    147018.41048  21609525.054    21609524.5054   21609533.9614
     -1604.807       -1250.499
   -286011.836 9   -209591.52546  23722782.169    23722782.0664   23722794.8964
      3451.223        2689.265
   -198930.807 9   -145412.48946  24099951.804    24099950.6624   24099962.7804
      2833.632        2208.025
    192145.807 9    130568.67646  23922967.466    23922967.4234   23922981.1394
     -3117.007       -2428.837
 80  4 14 20  1 20.0000000  0  9G01G22G03G19G18G16G31G27G14          0.000716919
    169593.570 9    126188.25148  21816779.316    21816778.9444   21816788.3024
     -1218.701        -949.637
    334300.318 9    241076.45446  23871293.176    23871292.3244   23871306.9594
     -2932.705       -2285.225
   -255244.658 9   -179299.54646  23503928.315    23503928.3354   23503940.6614
      1827.914        1424.349
   -278259.740 9   -202983.22548  21735176.371    21735176.0354   21735185.2474
      1993.881        1553.674
   -267981.449 9   -186292.54149  20552591.266    20552590.8654   20552598.9204
      1904.134        1483.741
    212087.194 9    159540.75948  21612583.178    21612582.6134   21612592.0694
     -1609.627       -1254.255
   -320519.993 9   -236480.98446  23716215.515    23716215.3854   23716228.2674
      3450.084        2688.377
   -227268.234 9   -167493.64946  24094559.288    24094557.9044   24094570.3564
      2833.560        2207.969
    223317.712 9    154858.38856  23928899.291    23928899.2774   23928912.5065
     -3117.655       -2429.342
 80  4 14 20  1 30.0000000  0  9G01G22G03G19G18G16G31G27G14          0.000713106
    181796.389 9    135696.91648  21819101.469    21819101.0744   21819110.4234
     -1222.463        -952.569
    363631.847 9    263932.12746  23876874.857    23876874.1184   23876888.4664
     -2934.296       -2286.464
   -273501.069 9   -193525.27946  23500454.244    23500454.2434   23500466.5394
      1822.737        1420.315
   -298192.192 9   -218514.99948  21731383.376    21731383.0314   21731392.2254
      1991.978        1552.191
   -287005.296 9   -201116.31549  20548971.160    20548970.7434   20548978.8014
      1899.996        1480.516
    228205.994 9    172100.83548  21615650.507    21615649.9414   21615659.3934
     -1614.769       -1258.262
   -355016.922 9   -263361.69246  23709651.046    23709650.7764   23709663.7754
      3448.677        2687.281
   -255605.299 9   -189574.47156  24089166.974    24089166.9654   24089180.2735
      2833.211        2207.697
    254496.028 9    179153.10446  23934832.411    23934832.1915   23934845.8094
     -3118.580       -2430.062
 80  4 14 20  1 40.0000000  0  9G01G22G03G19G18G16G31G27G14          0.000709289
    194035.267 9    145233.68448  21821430.477    21821430.0764   21821439.4244
     -1226.011        -955.333
    392978.488 8    286799.55945  23882459.357    23882458.6234   23882472.8424
     -2935.777       -2287.618
   -291707.039 9   -207711.73146  23496989.787    23496989.7314   23497002.1114
      1817.771        1416.445
   -318107.677 9   -234033.55448  21727593.588    21727593.2364   21727602.4294
      1990.402        1550.963
   -305988.646 9   -215908.52849  20545358.762    20545358.3494   20545366.3764
      1895.975        1477.383
    244374.535 9    184699.68248  21618727.321    21618726.7174   21618736.1924
     -1619.638       -1262.056
   -389500.706 9   -290232.14946  23703089.010    23703088.7314   23703101.7434
      3447.444        2686.320
   -283940.823 9   -211654.08846  24083774.903    24083774.7235   24083787.9274
      2833.203        2207.691
    285681.747 9    203453.58146  23940766.920    23940766.6624   23940780.3794
     -3119.222       -2430.563
 80  4 14 20  1 50.0000000  0  9G01G22G03G19G18G16G31G27G14          0.000705474
    206316.634 9    154803.56048  21823767.573    21823767.1374   21823776.4994
     -1230.746        -959.023
    422346.520 8    309683.65445  23888047.895    23888046.9804   23888061.3834
     -2938.361       -2289.632
   -309856.901 9   -221854.45246  23493535.995    23493535.9164   23493548.3024
      1811.737        1411.743
   -337999.528 9   -249533.69648  21723808.308    21723807.9374   21723817.1154
      1987.474        1548.681
   -324924.235 9   -230663.52849  20541755.450    20541755.0224   20541763.0604
      1890.668        1473.248
    260598.652 9    197341.82448  21621814.682    21621814.0744   21621823.5554
     -1625.650       -1266.740
   -423965.655 9   -317087.95346  23696530.586    23696530.2314   23696543.2504
      3445.093        2684.488
   -312268.665 9   -233727.76446  24078384.381    24078383.9764   24078396.4134
      2831.895        2206.671
    316881.171 9    227764.72646  23946704.025    23946703.8464   23946717.4114
     -3121.114       -2432.037
 80  4 14 20  2  0.0000000  0  9G01G22G03G19G18G16G31G27G14          0.000701658
    218635.767 9    164402.85548  21826111.844    21826111.4054   21826120.7564
     -1234.476        -961.929
    451731.042 8    332580.58545  23893639.582    23893638.6334   23893653.1134
     -2940.021       -2290.925
   -327955.547 9   -235957.26346  23490091.999    23490091.8624   23490104.2534
      1806.612        1407.750
   -357871.695 9   -265018.50348  21720026.765    21720026.3924   21720035.5644
      1985.540        1547.174
   -343816.497 9   -245384.76949  20538160.375    20538159.9544   20538167.9804
      1886.391        1469.915
    276873.262 9    210023.30748  21624911.652    21624911.0354   21624920.5144
     -1630.664       -1270.647
   -458417.417 9   -343933.46646  23689974.677    23689974.2404   23689987.2084
      3443.839        2683.511
   -340593.775 8   -255799.28046  24072994.225    24072993.9134   24073006.4094
      2831.714        2206.530
    348089.894 9    252083.12346  23952642.886    23952642.7254   23952656.2734
     -3122.037       -2432.756
 80  4 14 20  2 10.0000000  0  9G01G22G03G19G18G16G31G27G14          0.000697840
    230990.983 9    174030.27248  21828462.986    21828462.5364   21828471.8864
     -1236.843        -963.774
    481131.362 9    355489.82546  23899234.327    23899233.3594   23899247.9174
     -2940.355       -2291.186
   -346004.563 9   -250021.40546  23486657.427    23486657.2874   23486669.6154
      1802.977        1404.917
   -377726.025 9   -280489.40648  21716248.614    21716248.2444   21716257.4154
      1985.005        1546.757
   -362667.500 9   -260073.85949  20534573.157    20534572.7284   20534580.7624
      1883.554        1467.704
    293196.003 9    222742.30248  21628017.792    21628017.1694   21628026.6484
     -1634.147       -1273.361
   -492857.087 9   -370769.56446  23683421.027    23683420.5794   23683433.5844
      3443.758        2683.448
   -368918.436 9   -277870.39946  24067604.263    24067603.4584   24067616.2704
      2832.942        2207.487
    379305.885 9    276407.19246  23958583.136    23958582.9664   23958596.5714
     -3121.379       -2432.243
 80  4 14 20  2 20.0000000  0  9G01G22G03G19G18G16G31G27G14          0.000694022
    243387.415 9    183689.81348  21830821.975    21830821.5084   21830830.8574
     -1241.313        -967.257
    510552.835 9    378415.56946  23904833.096    23904832.1944   23904846.6624
     -2942.895       -2293.165
   -364001.309 9   -264044.82046  23483232.781    23483232.6644   23483244.9034
      1797.513        1400.659
   -397557.004 9   -295942.11148  21712474.905    21712474.5374   21712483.7174
      1982.328        1544.671
   -381472.749 9   -274727.29549  20530994.656    20530994.2174   20531002.2404
      1878.607        1463.850
    309571.282 9    235502.23648  21631133.920    21631133.2924   21631142.7824
     -1639.783       -1277.753
   -527277.198 9   -397590.41646  23676871.149    23676870.6744   23676883.7054
      3441.374        2681.590
   -397236.958 9   -299936.85746  24062215.502    24062215.0474   24062227.0484
      2831.862        2206.646
    410532.593 9    300739.60746  23964525.447    23964525.2694   23964538.8664
     -3122.757       -2433.317
 80  4 14 20  2 30.0000000  0  9G01G22G03G19G18G16G31G27G14          0.000690202
    255818.702 9    193376.50748  21833187.583    21833187.1214   21833196.4624
     -1244.767        -969.948
    539990.520 9    401353.92246  23910434.909    23910434.0184   23910448.5184
     -2944.537       -2294.444
   -381952.513 9   -278032.74846  23479816.796    23479816.6474   23479828.9254
      1792.874        1397.045
   -417371.166 9   -311381.71548  21708704.415    21708704.0334   21708713.2034
      1980.659        1543.371
   -400238.182 9   -289349.70549  20527423.720    20527423.2704   20527431.3044
      1874.624        1460.746
    325992.913 9    248298.28148  21634258.872    21634258.2394   21634267.7194
     -1644.373       -1281.330
   -561682.262 9   -424399.54046  23670324.053    23670323.5684   23670336.6564
      3439.774        2680.343
   -425553.577 9   -322001.69746  24056826.958    24056826.4704   24056838.7924
      2831.543        2206.397
    441763.345 9    325075.17746  23970468.537    23970468.2904   23970482.0084
     -3123.223       -2433.680
 80  4 14 20  2 40.0000000  0  9G01G22G03G19G18G16G31G27G14          0.000686383
    268289.283 9    203093.81248  21835560.673    21835560.2054   21835569.5474
     -1248.945        -973.204
    569449.092 9    424308.55346  23916040.743    23916039.8474   23916054.2974
     -2946.844       -2296.242
   -399851.891 9   -291980.29146  23476410.677    23476410.4934   23476422.7844
      1787.411        1392.788
   -437164.242 9   -326804.88648  21704937.932    21704937.5354   21704946.7144
      1978.307        1541.538
   -418958.321 9   -303936.82449  20523861.403    20523860.9424   20523868.9904
      1869.814        1456.998
    342465.314 9    261133.89148  21637393.492    21637392.8454   21637402.3274
     -1649.657       -1285.447
   -596066.081 9   -451192.10846  23663781.053    23663780.5464   23663793.6074
      3437.348        2678.453
   -453860.613 9   -344059.07846  24051440.438    24051439.9484   24051452.3864
      2830.234        2205.377
    473003.932 9    349418.40746  23976413.491    23976413.2084   23976426.9674
     -3124.486       -2434.664
 80  4 14 20  2 50.0000000  0  9G01G22G03G19G18G16G31G27G14          0.000682565
    280797.668 9    212840.58548  21837940.954    21837940.4804   21837949.8334
     -1252.673        -976.109
    598927.291 9    447278.51446  23921650.335    23921649.4814   23921663.7764
     -2948.770       -2297.743
   -417701.189 9   -305888.80846  23473014.100    23473013.8794   23473026.1794
      1782.515        1388.973
   -456938.053 9   -342213.05048  21701175.106    21701174.7054   21701183.8724
      1976.482        1540.116
   -437634.974 9   -318490.05649  20520307.350    20520306.8964   20520314.9424
      1865.575        1453.695
    358985.630 9    274006.84348  21640537.221    21640536.5714   21640546.0464
     -1654.318       -1289.079
   -630430.216 9   -477969.34546  23657241.793    23657241.2664   23657254.3064
      3435.523        2677.031
   -482158.430 9   -366109.37946  24046055.439    24046054.9304   24046067.1964
      2829.337        2204.678
    504252.013 9    373767.46446  23982359.852    23982359.5854   23982373.3674
     -3125.120       -2435.158
 80  4 14 20  3  0.0000000  0  9G01G22G03G19G18G16G31G27G14          0.000678749
    293344.204 9    222617.08548  21840328.508    21840328.0204   21840337.3834
     -1256.889        -979.394
    628426.069 9    470264.51646  23927263.823    23927262.9864   23927277.2104
     -2951.248       -2299.674
   -435500.637 9   -319758.48846  23469626.992    23469626.7174   23469639.0494
      1777.121        1384.770
   -476692.555 9   -357606.16448  21697415.954    21697415.5574   21697424.7144
      1974.101        1538.261
   -456268.711 9   -333009.84349  20516761.470    20516760.9944   20516769.0564
      1860.883        1450.039
    375553.078 9    286916.51948  21643689.921    21643689.2584   21643698.7534
     -1659.466       -1293.090
   -664775.119 9   -504731.58946  23650706.171    23650705.6384   23650718.6854
      3433.164        2675.193
   -510446.578 9   -388152.11646  24040672.525    24040671.9274   24040684.1614
      2828.043        2203.670
    535507.664 9    398122.43646  23988307.631    23988307.3754   23988321.1354
     -3126.287       -2436.068
 80  4 14 20  3 10.0000000  0  9G01G22G03G19G18G16G31G27G14          0.000674935
    305929.195 9    232423.54748  21842723.365    21842722.8714   21842732.2494
     -1259.695        -981.581
    657945.697 9    493266.73346  23932881.275    23932880.4514   23932894.6414
     -2952.320       -2300.509
   -453249.970 9   -333589.10146  23466249.392    23466249.1204   23466261.4574
      1773.065        1381.609
   -496425.941 9   -372982.82448  21693660.823    21693660.4194   21693669.5824
      1972.910        1537.332
   -474858.140 9   -347495.11049  20513224.014    20513223.5434   20513231.6084
      1857.339        1447.277
    392168.974 9    299863.93948  21646851.829    21646851.1694   21646860.6634
     -1663.334       -1296.104
   -699099.390 9   -531477.76746  23644174.498    23644173.9824   23644186.9584
      3432.108        2674.370
   -538725.363 9   -410187.47246  24035291.177    24035290.7294   24035303.1174
      2828.108        2203.720
    566772.189 9    422484.30346  23994257.100    23994256.9014   23994270.5454
     -3126.205       -2436.004
 80  4 14 20  3 20.0000000  0  9G01G22G03G19G18G16G31G27G14          0.000671123
    318551.153 9    242258.81648  21845125.260    21845124.7614   21845134.1434
     -1263.485        -984.534
    687485.667 9    516284.79746  23938502.564    23938501.7744   23938515.9534
     -2954.460       -2302.177
   -470948.346 9   -347380.01846  23462881.494    23462881.2294   23462893.5644
      1767.850        1377.545
   -516137.627 9   -388342.57348  21689909.817    21689909.4074   21689918.5604
      1970.591        1535.525
   -493401.602 9   -361944.56149  20509695.318    20509694.8374   20509702.8974
      1852.524        1443.525
    408833.953 9    312849.61748  21650023.092    21650022.4084   21650031.9144
     -1668.459       -1300.098
   -733403.523 9   -558208.25746  23637646.654    23637646.1474   23637659.0944
      3429.899        2672.649
   -566994.206 9   -432215.14946  24029911.852    24029911.1934   24029923.4744
      2826.916        2202.792
    598044.799 9    446852.48846  24000208.105    24000207.9144   24000221.5864
     -3127.120       -2436.717
 80  4 14 20  3 30.0000000  0  9G01G22G03G19G18G16G31G27G14          0.000667309
    331206.320 9    252119.96148  21847533.489    21847532.9794   21847542.3554
     -1267.688        -987.809
    717041.799 9    539315.46045  23944126.927    23944126.1444   23944140.3224
     -2956.895       -2304.074
   -488600.079 9   -361134.59946  23459522.478    23459522.1834   23459534.5384
      1762.450        1373.338
   -535830.804 9   -403687.90448  21686162.348    21686161.9254   21686171.0754
      1967.935        1533.456
   -511901.038 9   -376359.70049  20506174.982    20506174.5294   20506182.5614
      1847.268        1439.430
    425545.292 9    325871.41148  21653203.164    21653202.4914   21653211.9864
     -1673.861       -1304.307
   -767689.698 9   -584924.74346  23631122.240    23631121.7304   23631134.6334
      3427.232        2670.570
   -595256.284 9   -454237.58946  24024533.792    24024533.2344   24024545.3734
      2825.378        2201.593
    629321.630 9    471223.95546  24006159.924    24006159.7084   24006173.4474
     -3128.332       -2437.661
 80  4 14 20  3 40.0000000  0  9G01G22G03G19G18G16G31G27G14          0.000663496
    343899.057 9    262010.37848  21849948.850    21849948.3434   21849957.7274
     -1270.712        -990.165
    746616.890 9    562360.90046  23949754.926    23949754.1294   23949768.3194
     -2957.979       -2304.919
   -506203.669 9   -374851.66346  23456172.646    23456172.3104   23456184.6904
      1758.415        1370.194
   -555502.221 9   -419016.27848  21682418.987    21682418.5704   21682427.7314
      1966.507        1532.343
   -530353.086 9   -390737.91649  20502663.695    20502663.2074   20502671.2674
      1843.356        1436.381
    442304.922 9    338930.83248  21656392.425    21656391.7544   21656401.2534
     -1677.954       -1307.497
   -801954.228 9   -611624.36546  23624601.924    23624601.3824   23624614.2844
      3425.821        2669.471
   -623507.164 9   -476251.15746  24019157.798    24019157.2294   24019169.6414
      2824.960        2201.267
    660605.498 8    495600.90945  24012113.091    24012112.8544   24012126.5784
     -3128.271       -2437.614
 80  4 14 20  3 50.0000000  0  9G01G22G03G19G18G16G31G27G14          0.000659682
    356628.463 9    271929.36848  21852371.197    21852370.6874   21852380.0614
     -1274.837        -993.379
    776209.640 9    585420.10346  23955386.294    23955385.4824   23955399.6524
     -2960.273       -2306.706
   -523761.308 9   -388532.92246  23452831.512    23452831.1974   23452843.5574
      1753.404        1366.289
   -575153.831 9   -434329.21348  21678679.419    21678678.9954   21678688.1524
      1964.121        1530.484
   -548760.840 9   -405081.61849  20499160.824    20499160.3484   20499168.3734
      1838.539        1432.628
    459111.755 9    352027.03948  21659590.677    21659590.0004   21659599.4974
     -1683.063       -1311.478
   -836198.480 9   -638308.17746  23618085.480    23618084.9324   23618097.8084
      3423.362        2667.555
   -651747.411 9   -498256.59546  24013783.908    24013783.3564   24013795.6134
      2823.512        2200.139
    691894.687 8    519982.00445  24018067.246    24018067.0084   24018080.7544
     -3129.207       -2438.343
 80  4 14 20  4  0.0000000  0  9G01G22G03G19G18G16G31G27G14          0.000655871
    369399.010 9    281880.41848  21854801.380    21854800.8504   21854810.2324
     -1279.283        -996.844
    805825.015 9    608496.92946  23961021.964    23961021.1554   23961035.2894
     -2962.857       -2308.720
   -541269.110 9   -402175.35446  23449499.907    23449499.5704   23449511.9154
      1748.095        1362.152
   -594782.185 9   -449624.03448  21674944.256    21674943.8244   21674953.0184
      1961.492        1528.435
   -567121.113 9   -419388.32249  20495666.994    20495666.5064   20495674.5284
      1833.499        1428.701
    475969.053 9    365162.57748  21662798.543    21662797.8564   21662807.3564
     -1688.440       -1315.668
   -870418.149 9   -664972.84846  23611573.697    23611573.1414   23611586.0394
      3420.557        2665.369
   -679973.223 9   -520250.75546  24008412.714    24008412.1994   24008424.3674
      2821.638        2198.679
    723192.760 8    544370.02645  24024023.063    24024022.8514   24024036.6414
     -3130.462       -2439.321
 80  4 14 20  4 10.0000000  0  9G01G22G03G19G18G16G31G27G14          0.000652062
    382209.502 9    291862.59548  21857239.160    21857238.6204   21857248.0044
     -1282.841        -999.616
    835461.118 8    631589.90745  23966661.573    23966660.7574   23966674.8834
     -2964.465       -2309.973
   -558726.884 9   -415778.79146  23446177.817    23446177.4544   23446189.8244
      1743.414        1358.504
   -614388.487 9   -464901.66648  21671213.298    21671212.8654   21671222.0674
      1959.732        1527.064
   -585435.595 9   -433659.34549  20492181.844    20492181.3804   20492189.4014
      1829.372        1425.485
    492876.146 9    378336.90348  21666015.875    21666015.1874   21666024.6864
     -1693.004       -1319.224
   -904613.741 9   -691618.74746  23605066.485    23605065.9384   23605078.8254
      3418.506        2663.771
   -708184.814 9   -542233.75646  24003044.206    24003043.6504   24003055.9184
      2820.563        2197.841
    754499.428 8    568764.71845  24029980.533    24029980.2664   24029994.1534
     -3130.872       -2439.641
 80  4 14 20  4 20.0000000  0  9G01G22G03G19G18G16G31G27G14          0.000648253
    395056.215 9    301872.99148  21859683.825    21859683.2894   21859692.6674
     -1286.864       -1002.751
    865114.059 8    654696.00045  23972304.371    23972303.5514   23972317.7034
     -2966.500       -2311.558
   -576136.966 9   -429345.05646  23442864.779    23442864.4164   23442876.7884
      1738.275        1354.500
   -633976.510 9   -480165.05848  21667485.830    21667485.3914   21667494.5944
      1957.520        1525.340
   -603708.392 9   -447897.88449  20488704.653    20488704.1754   20488712.2134
      1824.844        1421.956
    509829.760 9    391547.48948  21669242.070    21669241.3724   21669250.8754
     -1698.048       -1323.154
   -938787.836 9   -718247.89946  23598563.390    23598562.8334   23598575.6844
      3415.960        2661.787
   -736384.976 9   -564207.91746  23997677.878    23997677.3374   23997689.5984
      2819.091        2196.694
    785810.799 9    593163.09345  24035938.909    24035938.5924   24035952.5424
     -3131.740       -2440.317
 80  4 14 20  4 30.0000000  0  9G01G22G03G19G18G16G31G27G14          0.000644443
    407939.829 9    311912.15148  21862135.511    21862134.9704   21862144.3554
     -1290.254       -1005.393
    894783.530 8    677814.97345  23977950.311    23977949.4634   23977963.6234
     -2967.879       -2312.633
   -593499.574 9   -442874.35146  23439560.822    23439560.4134   23439572.7874
      1733.786        1351.002
   -653545.912 9   -495413.93648  21663761.886    21663761.4444   21663770.6684
      1955.913        1524.088
   -621938.993 9   -462103.54149  20485235.496    20485234.9974   20485243.0404
      1820.818        1418.819
    526830.402 9    404794.71548  21672477.210    21672476.4954   21672486.0044
     -1702.523       -1326.641
   -972940.216 9   -744860.10646  23592064.423    23592063.8624   23592076.6754
      3414.139        2660.368
   -764573.799 9   -586173.22346  23992313.722    23992313.1914   23992325.4244
      2818.222        2196.017
    817126.824 9    617565.11045  24041898.188    24041897.8764   24041911.7784
     -3131.941       -2440.474
 80  4 14 20  4 40.0000000  0  9G01G22G03G19G18G16G31G27G14          0.000640636
    420864.637 9    321983.39648  21864595.049    21864594.4904   21864603.8884
     -1294.580       -1008.764
    924473.816 9    700950.16245  23983600.249    23983599.3884   23983613.5254
     -2970.120       -2314.379
   -610808.072 9   -456361.47946  23436267.106    23436266.7014   23436279.0744
      1728.020        1346.509
   -673091.448 9   -510644.22148  21660042.491    21660042.0444   21660051.2844
      1953.305        1522.056
   -640121.311 9   -476271.58349  20481775.530    20481775.0274   20481783.0584
      1815.753        1414.872
    543883.405 9    418082.73748  21675722.316    21675721.5984   21675731.1134
     -1707.955       -1330.874
  -1007067.408 9   -771452.71346  23585570.239    23585569.6734   23585582.4924
      3411.465        2658.284
   -792746.387 9   -608125.85246  23986952.661    23986952.1204   23986964.3874
      2816.387        2194.587
    848453.163 9    641975.17145  24047859.430    24047859.1094   24047872.9914
     -3133.237       -2441.483
 80  4 14 20  4 50.0000000  0  9G01G22G03G19G18G16G31G27G14          0.000636834
    433830.556 9    332086.68448  21867062.395    21867061.8434   21867071.2424
     -1298.459       -1011.786
    954183.875 9    724100.78745  23989253.967    23989253.1124   23989267.2124
     -2971.845       -2315.723
   -628061.138 9   -469805.41346  23432983.959    23432983.5414   23432995.9304
      1722.735        1342.391
   -692613.132 9   -525855.91748  21656327.640    21656327.1894   21656336.4434
      1951.133        1520.363
   -658255.059 9   -490401.76849  20478324.787    20478324.2824   20478332.3324
      1811.099        1411.246
    560988.624 9    431411.45348  21678977.363    21678976.6364   21678986.1514
     -1712.981       -1334.790
  -1041170.646 9   -798026.62046  23579080.627    23579080.0414   23579092.8434
      3409.352        2656.638
   -820903.742 9   -630066.65746  23981594.487    23981593.9554   23981606.1864
      2815.176        2193.644
    879791.355 9    666394.46345  24053822.948    24053822.6444   24053836.4654
     -3134.265       -2442.284
 80  4 14 20  5  0.0000000  0  9G01G22G03G19G18G16G31G27G14          0.000633031
    446833.202 9    342218.58948  21869536.742    21869536.1794   21869545.5774
     -1301.929       -1014.490
    983909.833 9    747263.77545  23994910.673    23994909.8244   23994923.9644
     -2973.280       -2316.842
   -645263.725 9   -483210.00446  23429710.402    23429709.9924   23429722.3774
      1717.935        1338.651
   -712114.238 9   -541051.58148  21652616.698    21652616.2564   21652625.5194
      1949.233        1518.883
   -676343.096 9   -504496.33749  20474882.755    20474882.2534   20474890.2984
      1806.678        1407.801
    578143.002 9    444778.47548  21682241.764    21682241.0164   21682250.5484
     -1717.719       -1338.482
  -1075255.207 9   -824585.98746  23572594.551    23572593.9564   23572606.7644
      3407.725        2655.370
   -849051.419 9   -651999.87846  23976238.199    23976237.6474   23976249.9064
      2814.523        2193.135
    911136.949 9    690819.51745  24059787.861    24059787.5374   24059801.3674
     -3134.713       -2442.633
 80  4 14 20  5 10.0000000  0  9G01G22G03G19G18G16G31G27G14          0.000629231
    459876.753 9    352382.36748  21872018.870    21872018.2974   21872027.7154
     -1306.517       -1018.065
   1013655.870 9    770442.40045  24000571.225    24000570.3464   24000584.5024
     -2975.750       -2318.766
   -662412.327 9   -496572.53546  23426447.144    23426446.7224   23426459.0844
      1712.001        1334.027
   -731590.664 9   -556228.00748  21648910.461    21648910.0124   21648919.2854
      1946.253        1516.561
   -694380.431 9   -518551.40049  20471450.363    20471449.8594   20471457.9034
      1801.014        1403.388
    595350.577 9    458186.95048  21685516.269    21685515.5384   21685525.0564
     -1723.601       -1343.066
  -1109317.508 9   -851128.00646  23566112.712    23566112.1194   23566124.9324
      3404.940        2653.200
   -877187.621 9   -673924.17546  23970884.016    23970883.5194   23970895.8084
      2812.976        2191.929
    942493.608 9    715253.19645  24065754.879    24065754.5094   24065768.3754
     -3136.377       -2443.930
 80  4 14 20  5 20.0000000  0  9G01G22G03G19G18G16G31G27G14          0.000625433
    472959.849 9    362576.95948  21874508.527    21874507.9444   21874517.3644
     -1310.255       -1020.978
   1043420.056 9    793635.16645  24006235.230    24006234.3074   24006248.4724
     -2977.310       -2319.982
   -679508.000 9   -509893.82746  23423193.939    23423193.5294   23423205.9044
      1706.931        1330.076
   -751043.997 9   -571386.44448  21645208.619    21645208.1524   21645217.4524
      1944.208        1514.967
   -712367.571 9   -532567.35049  20468027.513    20468027.0224   20468035.0614
      1796.229        1399.659
    612610.476 9    471636.19248  21688800.745    21688800.0074   21688809.5294
     -1728.550       -1346.922
  -1143357.934 9   -877652.96346  23559635.057    23559634.4304   23559647.2734
      3403.008        2651.695
   -905314.289 9   -695841.05946  23965531.724    23965531.1844   23965543.4484
      2812.185        2191.313
    973860.559 9    739694.88945  24071723.861    24071723.4664   24071737.3734
     -3137.183       -2444.558
 80  4 14 20  5 30.0000000  0  9G01G22G03G19G18G16G31G27G14          0.000621634
    486080.479 9    372800.79948  21877005.313    21877004.7454   21877014.1684
     -1313.987       -1023.886
   1073199.388 9    816839.76745  24011902.147    24011901.1954   24011915.2944
     -2978.787       -2321.133
   -696553.372 9   -523175.91746  23419950.300    23419949.8834   23419962.2764
      1702.021        1326.250
   -770476.684 9   -586528.79848  21641510.708    21641510.2344   21641519.5404
      1942.224        1513.421
   -730306.689 9   -546545.88349  20464613.811    20464613.3154   20464621.3524
      1791.504        1395.977
    629919.944 9    485124.06248  21692094.660    21692093.9134   21692103.4454
     -1733.461       -1350.749
  -1177379.556 9   -904163.27746  23553160.935    23553160.3384   23553173.1644
      3401.189        2650.277
   -933432.340 9   -717751.19646  23960181.004    23960180.5274   23960192.7704
      2811.273        2190.602
   1005235.544 9    764142.83845  24077694.384    24077693.9824   24077707.8444
     -3137.928       -2445.139
 80  4 14 20  5 40.0000000  0  9G01G22G03G19G18G16G31G27G14          0.000617837
    499242.091 9    383056.57448  21879509.909    21879509.3384   21879518.7574
     -1317.940       -1026.966
   1102996.421 9    840058.15945  24017572.408    24017571.4534   24017585.5214
     -2980.296       -2322.309
   -713547.427 9   -536418.03446  23416716.436    23416716.0054   23416728.3984
      1697.199        1322.493
   -789886.592 9   -601653.38948  21637817.115    21637816.6584   21637825.9734
      1940.128        1511.788
   -748196.483 9   -560485.98149  20461209.494    20461209.0014   20461217.0304
      1786.908        1392.396
    647281.310 9    498652.37148  21695398.441    21695397.6944   21695407.2284
     -1738.384       -1354.585
  -1211379.312 9   -930656.53046  23546690.989    23546690.3724   23546703.2184
      3399.166        2648.701
   -961537.611 9   -739651.37546  23954832.760    23954832.2344   23954844.5194
      2810.195        2189.762
   1036621.087 9    788599.03945  24083666.907    24083666.5224   24083680.3374
     -3138.816       -2445.831
 80  4 14 20  5 50.0000000  0  9G01G22G03G19G18G16G31G27G14          0.000614043
    512446.901 9    393346.00348  21882022.722    21882022.1444   21882031.5824
     -1322.636       -1030.625
   1132812.641 9    863291.51445  24023246.288    24023245.3874   24023259.4234
     -2982.668       -2324.157
   -730489.078 9   -549619.31646  23413492.546    23413492.0984   23413504.4864
      1691.500        1318.052
   -809271.821 9   -616758.75548  21634128.222    21634127.7814   21634137.1114
      1937.269        1509.560
   -766036.961 9   -574387.65249  20457814.577    20457814.0814   20457822.1014
      1781.600        1388.260
    664695.189 9    512221.59948  21698712.217    21698711.4664   21698721.0124
     -1744.012       -1358.970
  -1245355.428 9   -957131.36946  23540225.529    23540224.9194   23540237.7994
      3396.455        2646.588
   -989628.241 9   -761540.17146  23949487.293    23949486.7844   23949499.0184
      2808.340        2188.317
   1068019.327 9    813065.13745  24089641.851    24089641.4334   24089655.2314
     -3140.484       -2447.130
 80  4 14 20  6  0.0000000  0 10G01G22G03G19G18G16G31G27G13G14       0.000610300
    525693.564 9    403668.05248  21884543.509    21884542.9214   21884552.3684
     -1326.825       -1033.890
   1162647.830 9    886539.60345  24028923.774    24028922.8394   24028936.9394
     -2984.610       -2325.670
   -747377.725 9   -562779.28746  23410278.759    23410278.2904   23410290.6684
      1686.045        1313.801
   -828632.928 9   -631845.32848  21630443.941    21630443.4804   21630452.8274
      1934.806        1507.641
   -783829.058 9   -588251.62349  20454428.869    20454428.3634   20454436.3974
      1776.687        1384.431
    682161.189 9    525831.44148  21702035.909    21702035.1544   21702044.7074
     -1749.319       -1363.106
  -1279309.147 9   -983588.75046  23533764.366    23533763.7454   23533776.6014
      3394.142        2644.786
  -1017705.513 9   -783418.52246  23944144.328    23944143.8234   23944156.0634
      2806.976        2187.254
  -1015733.84618   -491045.01655  24996688.601    24996688.5935   24996702.0135
      3778.878        2944.580
   1099430.356 9    837541.18645  24095619.219    24095618.8044   24095632.5744
     -3141.840       -2448.187
 80  4 14 20  6 10.0000000  0 10G01G22G03G19G18G16G31G27G13G14       0.000606515
    538980.931 9    414021.81048  21887072.037    21887071.4384   21887080.8964
     -1330.109       -1036.449
   1192501.693 9    909802.25245  24034604.855    24034603.8764   24034617.9624
     -2985.637       -2326.470
   -764212.797 9   -575897.51746  23407075.127    23407074.6654   23407087.0474
      1681.483        1310.246
   -847970.547 9   -646913.60048  21626764.106    21626763.6584   21626773.0124
      1933.199        1506.389
   -801572.424 9   -602077.62049  20451052.436    20451051.9224   20451059.9354
      1772.489        1381.160
    699678.934 9    539481.60548  21705369.445    21705368.6924   21705378.2634
     -1753.743       -1366.553
  -1313241.402 9  -1010029.40746  23527307.257    23527306.6514   23527319.5114
      3392.836        2643.768
  -1045771.218 9   -805287.87246  23938803.685    23938803.1744   23938815.3704
      2806.634        2186.988
  -1053523.780 8   -520491.67645  24989497.386    24989497.4104   24989510.8264
      3779.701        2945.222
   1130854.083 9    862027.12745  24101599.011    24101598.6094   24101612.4044
     -3142.395       -2448.619
 80  4 14 20  6 20.0000000  0 10G01G22G03G19G18G16G31G27G13G14       0.000602730
    552304.496 9    424403.77848  21889607.443    21889606.8524   21889616.3054
     -1334.838       -1040.134
   1222368.537 9    933075.03646  24040288.422    24040287.4334   24040301.5074
     -2988.008       -2328.318
   -780998.497 9   -588977.27846  23403880.873    23403880.4364   23403892.8074
      1675.411        1305.515
   -867288.550 9   -661966.57948  21623088.034    21623087.5654   21623096.9234
      1930.151        1504.014
   -819270.424 9   -615868.26549  20447684.631    20447684.1144   20447692.1354
      1766.889        1376.797
    717244.177 9    553168.77548  21708712.017    21708711.2724   21708720.8474
     -1759.542       -1371.072
  -1347156.614 9  -1036456.77346  23520853.405    23520852.8044   23520865.6634
      3390.007        2641.564
  -1073829.561 9   -827151.51746  23933464.311    23933463.8264   23933475.9614
      2804.773        2185.537
  -1091318.958 8   -549942.44445  24982305.224    24982305.2444   24982318.6204
      3779.190        2944.823
   1162286.415 9    886519.76045  24107580.431    24107580.0084   24107593.8264
     -3144.304       -2450.107
 80  4 14 20  6 30.0000000  0 10G01G22G03G19G18G16G31G27G13G14       0.000598949
    565669.992 9    434818.42448  21892150.833    21892150.2454   21892159.6934
     -1338.634       -1043.091
   1252254.036 9    956362.35545  24045975.508    24045974.5414   24045988.6334
     -2989.533       -2329.506
   -797729.836 9   -602014.68046  23400696.958    23400696.5514   23400708.9254
      1670.516        1301.701
   -886581.247 9   -676999.84548  21619416.763    21619416.2894   21619425.6654
      1928.001        1502.338
   -836917.652 9   -629619.35049  20444326.491    20444325.9614   20444333.9914
      1762.206        1373.148
    734862.121 9    566897.01748  21712064.621    21712063.8754   21712073.4574
     -1764.412       -1374.866
  -1381049.374 9  -1062866.65446  23514403.832    23514403.2144   23514416.0784
      3388.200        2640.156
  -1101874.897 9   -849004.97646  23928127.457    23928126.9684   23928139.1644
      2803.964        2184.907
  -1129114.598 8   -579393.55845  24975112.966    24975112.9824   24975126.3654
      3779.649        2945.181
   1193732.017 9    911022.75546  24113564.391    24113563.9494   24113577.7844
     -3145.198       -2450.804
 80  4 14 20  6 40.0000000  0 10G01G22G03G19G18G16G31G27G13G14       0.000595171
    579075.862 9    445264.52348  21894701.903    21894701.3024   21894710.7804
     -1342.760       -1046.306
   1282157.118 9    979663.36145  24051665.919    24051664.9544   24051679.0754
     -2991.359       -2330.929
   -814410.369 9   -615012.49546  23397522.755    23397522.3254   23397534.7064
      1665.341        1297.668
   -905850.742 9   -692015.02948  21615749.904    21615749.4474   21615758.8134
      1925.653        1500.509
   -854516.274 9   -643332.56449  20440977.592    20440977.0634   20440985.0884
      1757.279        1369.308
    752530.859 9    580664.83848  21715426.888    21715426.1394   21715435.7354
     -1769.552       -1378.872
  -1414922.169 9  -1089260.95846  23507958.028    23507957.4104   23507970.2914
      3386.104        2638.523
  -1129911.230 9   -870851.45446  23922792.336    23922791.8354   23922804.0434
      2803.072        2184.212
  -1166913.154 8   -608846.94145  24967920.125    24967920.0874   24967933.5354
      3779.857        2945.343
   1225188.859 9    935534.50246  24119550.496    24119550.0594   24119563.8684
     -3146.451       -2451.780
 80  4 14 20  6 50.0000000  0 10G01G22G03G19G18G16G31G27G13G14       0.000591396
    592524.786 9    455744.17648  21897261.171    21897260.5704   21897270.0344
     -1347.301       -1049.845
   1312080.404 9   1002980.09945  24057360.172    24057359.2214   24057373.3304
     -2993.553       -2332.639
   -831036.341 9   -627967.78246  23394358.913    23394358.5164   23394370.8854
      1659.620        1293.210
   -925094.487 9   -707010.15148  21612087.962    21612087.4824   21612096.8664
      1922.823        1498.304
   -872063.094 9   -657005.41149  20437638.549    20437638.0214   20437646.0404
      1751.875        1365.097
    770253.194 9    594474.42048  21718799.359    21718798.6074   21718808.2204
     -1775.127       -1383.216
  -1448770.915 9  -1115636.51946  23501516.792    23501516.1714   23501529.0934
      3383.390        2636.408
  -1157935.698 9   -892688.68546  23917459.433    23917458.9204   23917471.0884
      2801.590        2183.057
  -1204711.371 8   -638300.05845  24960727.341    24960727.2734   24960740.7694
      3779.530        2945.088
   1256660.575 9    960057.84646  24125539.434    24125539.0064   24125552.8044
     -3148.151       -2453.105
 80  4 14 20  7  0.0000000  0 10G01G22G03G19G18G16G31G27G13G14       0.000587625
    606014.826 9    466255.86248  21899828.251    21899827.6464   21899837.1274
     -1350.728       -1052.515
   1342021.165 9   1026310.46345  24063057.775    24063056.7984   24063070.9424
     -2994.693       -2333.527
   -847610.346 9   -640882.59546  23391204.990    23391204.5784   23391216.9484
      1655.163        1289.737
   -944314.834 9   -721987.04048  21608430.464    21608429.9834   21608439.3684
      1921.188        1497.030
   -889560.745 9   -670639.94449  20434308.859    20434308.3354   20434316.3564
      1747.628        1361.788
    788025.745 9    608323.12648  21722181.376    21722180.6354   21722190.2514
     -1779.430       -1386.569
  -1482596.525 9  -1141994.06346  23495079.962    23495079.3324   23495092.2794
      3381.673        2635.070
  -1185950.448 9   -914518.32546  23912128.430    23912127.8954   23912140.0774
      2801.306        2182.836
  -1242510.495 8   -667753.87045  24953534.426    24953534.3094   24953547.8414
      3780.251        2945.650
   1288144.497 9    984590.68646  24131530.679    24131530.2464   24131544.0634
     -3148.633       -2453.480
 80  4 14 20  7 10.0000000  0 10G01G22G03G19G18G16G31G27G13G14       0.000583857
    619545.355 9    476799.10248  21902403.045    21902402.4424   21902411.9174
     -1355.126       -1055.942
   1371979.323 9   1049654.38745  24068758.694    24068757.6964   24068771.8594
     -2996.824       -2335.188
   -864133.784 9   -653757.98746  23388060.676    23388060.2444   23388072.6204
      1649.729        1285.503
   -963513.022 9   -736946.66648  21604777.181    21604776.7034   21604786.0794
      1918.657        1495.057
   -907009.359 9   -684236.26449  20430988.496    20430987.9684   20430996.0034
      1742.355        1357.679
    805847.736 9    622210.36248  21725572.813    21725572.0654   21725581.6884
     -1784.737       -1390.704
  -1516397.757 9  -1168332.59546  23488647.817    23488647.1454   23488660.1314
      3378.793        2632.826
  -1213956.197 9   -936340.96146  23906799.135    23906798.6084   23906810.7524
      2800.063        2181.867
  -1280310.132 8   -697208.07145  24946341.383    24946341.2684   24946354.7924
      3779.983        2945.441
   1319638.766 9   1009131.58546  24137523.893    24137523.4654   24137537.3084
     -3149.957       -2454.512
 80  4 14 20  7 20.0000000  0 10G01G22G03G19G18G16G31G27G13G14       0.000580094
    633122.936 9    487379.00948  21904986.793    21904986.1884   21904995.6714
     -1360.014       -1059.751
   1401961.443 9   1073017.00145  24074464.185    24074463.1544   24074477.3404
     -2999.290       -2337.109
   -880599.103 9   -666588.10846  23384927.426    23384926.9894   23384939.3604
      1643.716        1280.818
   -982682.828 9   -751884.16448  21601129.302    21601128.8194   21601138.1954
      1915.654        1492.717
   -924403.422 9   -697790.07849  20427678.524    20427678.0064   20427686.0264
      1736.826        1353.371
    823725.323 9    636140.92248  21728974.834    21728974.0754   21728983.7044
     -1790.395       -1395.113
  -1550166.908 9  -1194646.14446  23482221.732    23482221.0774   23482234.0384
      3375.371        2630.159
  -1241946.021 9   -958151.21846  23901472.822    23901472.3004   23901484.3834
      2798.246        2180.451
  -1318103.228 8   -726657.18145  24939149.562    24939149.4554   24939162.9884
      3779.170        2944.808
   1351148.925 9   1033684.86546  24143520.133    24143519.7014   24143533.5574
     -3151.748       -2455.908
 80  4 14 20  7 30.0000000  0 10G01G22G03G19G18G16G31G27G13G14       0.000576335
    646743.006 9    497992.01748  21907578.626    21907578.0194   21907587.5154
     -1364.476       -1063.228
   1431961.784 9   1096393.80045  24080173.133    24080172.0724   24080186.2624
     -3001.303       -2338.678
   -897009.961 9   -679375.77946  23381804.566    23381804.1274   23381816.4984
      1638.023        1276.382
  -1001828.402 9   -766802.79348  21597486.046    21597485.5424   21597494.9174
      1912.947        1490.608
   -941748.941 9   -711306.06849  20424377.787    20424377.2624   20424385.2814
      1731.850        1349.494
    841653.505 9    650110.90548  21732386.476    21732385.7114   21732395.3494
     -1795.724       -1399.265
  -1583907.531 9  -1220937.44146  23475801.089    23475800.4274   23475813.4004
      3372.298        2627.765
  -1269923.107 9   -979951.47546  23896148.953    23896148.4314   23896160.6054
      2796.674        2179.226
  -1355894.286 8   -756104.70645  24931958.150    24931958.0394   24931971.5104
      3778.669        2944.417
   1382671.370 9   1058247.71646  24149518.692    24149518.2894   24149532.1664
     -3153.181       -2457.024
 80  4 14 20  7 40.0000000  0 10G01G22G03G19G18G16G31G27G13G14       0.000572581
    660408.143 9    508640.14248  21910179.036    21910178.4234   21910187.9294
     -1368.320       -1066.223
   1461982.825 9   1119786.72445  24085886.020    24085884.9324   24085899.1264
     -3002.743       -2339.800
   -913364.436 9   -692119.52246  23378692.416    23378691.9574   23378704.3434
      1633.083        1272.532
  -1020945.958 9   -781699.58548  21593848.104    21593847.6034   21593856.9584
      1910.729        1488.880
   -959044.515 9   -724783.13749  20421086.553    20421086.0234   20421094.0524
      1727.480        1346.088
    859635.475 9    664122.79748  21735808.343    21735807.5914   21735817.2374
     -1800.469       -1402.963
  -1617617.397 9  -1247204.78146  23469386.306    23469385.6314   23469398.6334
      3369.824        2625.837
  -1297883.128 9  -1001738.49546  23890828.351    23890827.8034   23890839.9444
      2795.577        2178.372
  -1393680.394 8   -785548.39845  24924767.679    24924767.5824   24924780.9814
      3778.864        2944.569
   1414208.008 9   1082821.62746  24155519.978    24155519.5534   24155533.4624
     -3153.961       -2457.632
 80  4 14 20  7 50.0000000  0 10G01G22G03G19G18G16G31G27G13G14       0.000568831
    674114.685 9    519320.53748  21912787.323    21912786.7184   21912796.2204
     -1373.237       -1070.055
   1492021.897 9   1143193.69845  24091602.318    24091601.2274   24091615.4334
     -3005.410       -2341.878
   -929666.152 9   -704822.15446  23375590.293    23375589.8494   23375602.2234
      1627.000        1267.792
  -1040038.882 9   -796577.17948  21590214.850    21590214.3574   21590223.7224
      1907.573        1486.421
   -976293.539 9   -738223.93449  20417804.173    20417803.6504   20417811.6604
      1722.063        1341.867
    877668.405 9    678174.40248  21739239.928    21739239.1684   21739248.8224
     -1806.363       -1407.556
  -1651298.759 9  -1273449.90146  23462976.913    23462976.2484   23462989.2424
      3366.196        2623.010
  -1325829.925 9  -1023515.20846  23885510.221    23885509.7214   23885521.8344
      2793.529        2176.776
  -1431465.401 8   -814991.21545  24917577.383    24917577.3324   24917590.6674
      3777.993        2943.891
   1445755.195 9   1107403.76846  24161523.272    24161522.8374   24161536.7814
     -3155.748       -2459.024
 80  4 14 20  8  0.0000000  0 10G01G22G03G19G18G16G31G27G13G14       0.000565084
    687864.267 9    530034.46048  21915403.809    21915403.2044   21915412.7084
     -1377.028       -1073.009
   1522082.266 9   1166617.26945  24097322.701    24097321.5854   24097335.7994
     -3007.073       -2343.174
   -945911.694 9   -717481.02146  23372498.874    23372498.4284   23372510.7794
      1621.747        1263.699
  -1059105.401 9   -811434.20348  21586586.614    21586586.1324   21586595.4724
      1905.366        1484.701
   -993493.461 9   -751626.47349  20414531.144    20414530.6104   20414538.6284
      1717.514        1338.323
    895754.346 9    692267.31448  21742681.594    21742680.8384   21742690.4864
     -1811.181       -1411.310
  -1684948.462 9  -1299670.36246  23456573.559    23456572.8854   23456585.8894
      3363.454        2620.873
  -1353762.394 9  -1045280.70646  23880194.835    23880194.3414   23880206.4784
      2792.603        2176.054
  -1469247.848 8   -844432.02445  24910387.559    24910387.6464   24910400.8684
      3778.233        2944.078
   1477314.617 9   1131995.43846  24167528.886    24167528.4484   24167542.4264
     -3156.472       -2459.589
 80  4 14 20  8 10.0000000  0 10G01G22G03G19G18G16G31G27G13G14       0.000561340
    701654.679 9    540780.20548  21918028.071    21918027.4594   21918036.9634
     -1381.213       -1076.270
   1552162.475 9   1190056.31045  24103046.861    24103045.7584   24103059.9404
     -3009.097       -2344.751
   -962101.498 9   -730096.45446  23369418.066    23369417.6054   23369429.9444
      1616.069        1259.275
  -1078147.641 9   -826272.30148  21582963.001    21582962.4994   21582971.8604
      1902.914        1482.790
  -1010644.428 9   -764990.86249  20411267.417    20411266.9034   20411274.9124
      1712.566        1334.467
    913891.919 9    706400.46248  21746133.094    21746132.3264   21746141.9794
     -1816.473       -1415.434
  -1718568.488 9  -1325867.69546  23450175.842    23450175.1684   23450188.1784
      3360.388        2618.484
  -1381682.763 9  -1067036.83546  23874881.777    23874881.2764   23874893.3424
      2791.294        2175.034
  -1507030.195 8   -873872.76045  24903197.786    24903197.9684   24903211.1134
      3778.252        2944.092
   1508884.103 9   1156594.95146  24173536.402    24173535.9684   24173549.9464
     -3157.509       -2460.397
 80  4 14 20  8 20.0000000  0 10G01G22G03G19G18G16G31G27G13G14       0.000557600
    715489.983 9    551560.92948  21920660.881    21920660.2674   21920669.7614
     -1385.731       -1079.790
   1582264.954 9   1213512.69545  24108775.266    24108774.1924   24108788.3274
     -3011.303       -2346.470
   -978232.203 9   -742665.82346  23366348.516    23366348.0564   23366360.3894
      1610.200        1254.701
  -1097162.372 9   -841088.96848  21579344.613    21579344.1244   21579353.4854
      1900.158        1480.643
  -1027743.053 9   -778314.46549  20408013.667    20408013.1334   20408021.1504
      1707.291        1330.357
    932085.095 9    720576.92748  21749595.160    21749594.3914   21749604.0484
     -1822.010       -1419.748
  -1752155.041 9  -1352038.93246  23443784.506    23443783.8324   23443796.8484
      3357.069        2615.898
  -1409587.342 9  -1088780.61346  23869571.664    23869571.1634   23869583.2784
      2789.722        2173.809
  -1544809.735 8   -903311.31645  24896008.556    24896008.7644   24896021.8854
      3777.918        2943.832
   1540465.827 9   1181203.99146  24179546.260    24179545.8424   24179559.8464
     -3158.650       -2461.286
 80  4 14 20  8 30.0000000  0 10G01G22G03G19G18G16G31G27G13G14       0.000553862
    729368.422 9    562375.26848  21923301.891    21923301.2664   21923310.7794
     -1389.684       -1082.871
   1612386.924 9   1236984.26745  24114507.339    24114506.2794   24114520.4364
     -3012.864       -2347.686
   -994306.983 9   -755191.62246  23363289.588    23363289.1174   23363301.4404
      1605.015        1250.661
  -1116152.148 9   -855886.19048  21575730.974    21575730.4914   21575739.8594
      1898.027        1478.982
  -1044791.702 9   -791599.12949  20404769.411    20404768.8924   20404776.8994
      1702.737        1326.808
    950330.757 9    734794.29948  21753067.205    21753066.4454   21753076.1124
     -1826.861       -1423.528
  -1785710.866 9  -1378186.22846  23437399.019    23437398.3364   23437411.3444
      3354.359        2613.786
  -1437477.969 9  -1110513.55246  23864264.235    23864263.7404   23864275.8694
      2788.666        2172.986
  -1582588.800 8   -932749.49545  24888819.416    24888819.6244   24888832.7684
      3778.241        2944.084
   1572055.864 8   1205819.51246  24185557.686    24185557.2664   24185571.2914
     -3159.080       -2461.621
 80  4 14 20  8 40.0000000  0 10G01G22G03G19G18G16G31G27G13G14       0.000550124
    743288.941 9    573222.39448  21925950.897    21925950.2864   21925959.7934
     -1394.029       -1086.256
   1642527.939 9   1260470.67445  24120243.045    24120241.9444   24120256.1774
     -3015.015       -2349.362
  -1010326.971 9   -767674.72146  23360241.068    23360240.6054   23360252.9384
      1599.356        1246.251
  -1135117.659 9   -870664.51048  21572121.972    21572121.4894   21572130.8274
      1895.427        1476.956
  -1061792.344 9   -804846.38349  20401534.294    20401533.7704   20401541.7854
      1697.755        1322.926
    968627.200 9    749051.23848  21756548.928    21756548.1664   21756557.8464
     -1832.075       -1427.591
  -1819236.803 9  -1404310.24746  23431019.202    23431018.5134   23431031.5214
      3351.232        2611.350
  -1465355.717 9  -1132236.42546  23858959.200    23858958.7214   23858970.8524
      2787.315        2171.934
  -1620368.067 8   -962187.83945  24881630.228    24881630.4164   24881643.5314
      3778.079        2943.958
   1603652.884 9   1230440.47446  24191570.446    24191570.0114   24191584.0664
     -3159.937       -2462.289
 80  4 14 20  8 50.0000000  0 10G01G22G03G19G18G16G31G27G13G14       0.000546389
    757251.475 9    584102.25748  21928607.898    21928607.2754   21928616.7994
     -1398.371       -1089.640
   1672689.309 9   1283972.97145  24125982.638    24125981.5654   24125995.7714
     -3017.187       -2351.055
  -1026291.502 9   -780114.61346  23357203.109    23357202.6704   23357215.0244
      1593.606        1241.771
  -1154057.587 9   -885422.88548  21568517.830    21568517.3394   21568526.6734
      1892.656        1474.797
  -1078743.388 9   -818054.98949  20398308.613    20398308.0954   20398316.1054
      1692.557        1318.876
    986975.360 9    763348.47348  21760040.488    21760039.7224   21760049.4034
     -1837.437       -1431.769
  -1852732.423 9  -1430410.63746  23424645.172    23424644.4494   23424657.4924
      3347.975        2608.812
  -1493221.138 9  -1153949.71246  23853656.593    23853656.0884   23853668.2254
      2785.891        2170.824
  -1658146.370 8   -991625.43145  24874441.255    24874441.3624   24874454.4394
      3777.833        2943.766
   1635257.944 8   1255067.69145  24197584.733    24197584.3034   24197598.3884
     -3160.931       -2463.063
 80  4 14 20  9  0.0000000  0 10G01G22G03G19G18G16G31G27G13G14       0.000542655
    771255.251 9    595014.26048  21931272.743    21931272.1254   21931281.6664
     -1402.982       -1093.233
   1702870.812 8   1307490.95845  24131726.026    24131725.0274   24131739.1404
     -3019.699       -2353.012
  -1042200.089 9   -792510.91446  23354175.824    23354175.3724   23354187.7104
      1587.514        1237.024
  -1172971.778 9   -900161.21348  21564918.565    21564918.0914   21564927.4114
      1889.584        1472.403
  -1095644.187 9   -831224.44349  20395092.496    20395091.9744   20395099.9974
      1687.047        1314.582
   1005374.589 9    777685.50848  21763541.775    21763541.0034   21763550.6894
     -1842.965       -1436.077
  -1886196.540 9  -1456486.48446  23418277.134    23418276.3994   23418289.4454
      3344.315        2605.960
  -1521073.584 9  -1175652.87746  23848356.408    23848355.9214   23848368.0834
      2783.994        2169.346
  -1695924.010 8  -1021062.52745  24867252.375    24867252.5564   24867265.5444
      3777.214        2943.284
   1666870.344 8   1279700.63645  24203600.430    24203599.9734   24203614.0964
     -3162.080       -2463.958
 80  4 14 20  9 10.0000000  0 10G01G22G03G19G18G16G31G27G13G14       0.000538926
    785305.590 9    605962.54648  21933946.458    21933945.8464   21933955.3844
     -1407.068       -1096.417
   1733077.706 9   1331028.71645  24137474.261    24137473.2684   24137487.3654
     -3021.667       -2354.546
  -1058047.814 9   -804859.77746  23351160.132    23351159.6814   23351171.9744
      1582.010        1232.735
  -1191855.024 9   -914875.43148  21561325.208    21561324.7194   21561334.0434
      1887.080        1470.452
  -1112489.646 9   -844350.77449  20391886.916    20391886.3824   20391894.4234
      1682.127        1310.748
   1023829.304 9    792065.77248  21767053.609    21767052.8494   21767062.5404
     -1847.951       -1439.962
  -1919624.682 9  -1482534.29546  23411915.918    23411915.2054   23411928.1984
      3341.351        2603.650
  -1548906.449 9  -1197340.83646  23843060.021    23843059.5144   23843071.6224
      2782.590        2168.252
  -1733694.637 8  -1050494.15145  24860064.844    24860065.0594   24860077.9764
      3777.012        2943.126
   1698493.837 8   1304342.23145  24209618.220    24209617.7774   24209631.9364
     -3162.537       -2464.315
 80  4 14 20  9 20.0000000  0 10G01G22G03G19G18G16G31G27G13G14       0.000535201
    799400.698 9    616945.71448  21936628.695    21936628.0714   21936637.6194
     -1411.856       -1100.148
   1763308.840 9   1354585.36945  24143227.106    24143226.1394   24143240.2074
     -3024.480       -2356.738
  -1073836.730 9   -817162.82446  23348155.604    23348155.1484   23348167.4384
      1575.830        1227.919
  -1210709.548 9   -929567.26048  21557737.322    21557736.8234   21557746.1344
      1883.904        1467.977
  -1129282.011 9   -857435.73549  20388691.442    20388690.9134   20388698.9484
      1676.471        1306.341
   1042338.249 9    806488.29648  21770575.769    21770575.0084   21770584.7094
     -1853.789       -1444.511
  -1953019.420 9  -1508556.06946  23405561.076    23405560.3584   23405573.3134
      3337.717        2600.818
  -1576721.157 9  -1219014.54646  23837767.011    23837766.5214   23837778.7224
      2780.412        2166.555
  -1771459.677 8  -1079921.42545  24852878.374    24852878.6134   24852891.4024
      3776.155        2942.458
   1730127.072 8   1328991.40045  24215637.891    24215637.4334   24215651.6344
     -3163.939       -2465.407
 80  4 14 20  9 30.0000000  0 10G01G22G03G19G18G16G31G27G13G14       0.000531479
    813537.732 9    627961.55748  21939318.908    21939318.2934   21939327.8394
     -1415.919       -1103.314
   1793561.562 9   1378158.84345  24148984.081    24148983.0974   24148997.1884
     -3026.458       -2358.279
  -1089569.397 9   -829422.03946  23345161.781    23345161.3094   23345173.5984
      1570.379        1223.672
  -1229538.471 9   -944239.14648  21554154.294    21554153.7934   21554163.0904
      1881.491        1466.097
  -1146024.604 9   -870481.91349  20385505.435    20385504.9074   20385512.9334
      1671.688        1302.614
   1060900.169 9    820952.09348  21774107.999    21774107.2414   21774116.9514
     -1858.931       -1448.518
  -1986384.898 9  -1534555.05846  23399211.790    23399211.0814   23399223.9924
      3335.061        2598.749
  -1604519.793 9  -1240675.85246  23832477.157    23832476.6444   23832488.7764
      2778.992        2165.448
  -1809222.342 8  -1109346.84745  24845692.386    24845692.5504   24845705.2784
      3776.053        2942.379
   1761767.928 8   1353646.51845  24221659.018    24221658.5604   24221672.7784
     -3164.551       -2465.884
 80  4 14 20  9 40.0000000  0 10G01G22G03G19G18G16G31G27G13G14       0.000527760
    827718.326 9    639011.34048  21942017.419    21942016.7864   21942026.3564
     -1419.911       -1106.424
   1823836.239 9   1401749.41845  24154745.257    24154744.2784   24154758.3954
     -3028.301       -2359.715
  -1105245.752 9   -841637.36546  23342178.651    23342178.2134   23342190.4674
      1565.189        1219.628
  -1248340.658 9   -958890.18948  21550576.347    21550575.8554   21550585.1424
      1879.205        1464.316
  -1162716.433 9   -883488.53649  20382329.095    20382328.5604   20382336.5904
      1666.924        1298.902
   1079515.373 9    835457.41448  21777650.366    21777649.6304   21777659.3464
     -1863.871       -1452.367
  -2019721.701 9  -1560531.70146  23392867.969    23392867.2324   23392880.1464
      3332.590        2596.823
  -1632301.935 9  -1262324.20846  23827190.344    23827189.8074   23827201.9964
      2777.688        2164.432
  -1846982.515 8  -1138770.32545  24838506.869    24838506.9424   24838519.7564
      3776.259        2942.539
   1793417.952 8   1378308.77645  24227681.888    24227681.4274   24227695.6644
     -3165.157       -2466.356
 80  4 14 20  9 50.0000000  0 10G01G22G03G19G18G16G31G27G13G14       0.000524041
    841937.907 9    650091.49748  21944723.343    21944722.7144   21944732.2794
     -1423.771       -1109.432
   1854129.384 9   1425354.38245  24160509.929    24160508.9474   24160523.1004
     -3030.158       -2361.162
  -1120871.177 9   -853813.01746  23339205.233    23339204.7934   23339217.0534
      1560.139        1215.693
  -1267121.610 9   -973524.69648  21547002.456    21547001.9584   21547011.2394
      1877.223        1462.771
  -1179360.660 9   -896458.06549  20379161.806    20379161.2624   20379169.3014
      1662.127        1295.164
   1098179.451 9    850000.82448  21781202.052    21781201.3064   21781211.0364
     -1868.712       -1456.139
  -2053034.638 9  -1586489.74146  23386528.679    23386527.9404   23386540.8574
      3330.211        2594.970
  -1660072.185 9  -1283963.34446  23821905.814    23821905.3324   23821917.5054
      2776.581        2163.570
  -1884743.691 8  -1168194.55245  24831321.152    24831321.2044   24831333.9914
      3776.332        2942.596
   1825072.415 8   1402974.50145  24233705.587    24233705.1554   24233719.4214
     -3165.534       -2466.650
 80  4 14 20 10  0.0000000  0 10G01G22G03G19G18G16G31G27G13G14       0.000520324
    856197.394 9    661202.75648  21947436.854    21947436.2304   21947445.7934
     -1428.255       -1112.926
   1884443.442 8   1448975.67545  24166278.559    24166277.5814   24166291.7484
     -3032.724       -2363.162
  -1136443.844 9   -865947.54646  23336241.849    23336241.4254   23336253.6724
      1554.320        1211.158
  -1285881.788 9   -988143.01548  21543432.490    21543431.9994   21543441.2744
      1874.714        1460.816
  -1195954.273 9   -909388.15449  20376004.136    20376003.6134   20376011.6464
      1656.515        1290.791
   1116893.119 9    864582.86748  21784763.172    21784762.4224   21784772.1594
     -1874.104       -1460.341
  -2086321.764 9  -1612427.68546  23380194.292    23380193.5754   23380206.4624
      3327.150        2592.584
  -1687829.940 9  -1305592.74546  23816623.709    23816623.1754   23816635.3514
      2774.949        2162.298
  -1922503.636 8  -1197617.81945  24824135.659    24824135.7214   24824148.5324
      3775.681        2942.089
   1856733.019 9   1427645.01945  24239730.468    24239730.0514   24239744.3174
     -3166.685       -2467.547
 80  4 14 20 10 10.0000000  0 10G01G22G03G19G18G16G31G27G13G14       0.000516609
    870497.064 9    672345.32248  21950158.012    21950157.3964   21950166.9694
     -1431.658       -1115.578
   1914777.745 8   1472612.70545  24172050.995    24172049.9944   24172064.2334
     -3034.106       -2364.238
  -1151962.536 9   -878040.02946  23333288.758    23333288.3224   23333300.5624
      1549.428        1207.346
  -1304621.934 9  -1002745.72148  21539866.340    21539865.8554   21539875.1254
      1873.303        1459.717
  -1212496.822 9   -922278.45349  20372856.210    20372855.6614   20372863.7034
      1652.020        1287.288
   1135655.694 9    879203.01948  21788333.591    21788332.8564   21788342.5854
     -1878.349       -1463.649
  -2119583.985 9  -1638346.20846  23373864.648    23373863.9074   23373876.8024
      3325.381        2591.206
  -1715576.351 9  -1327213.28946  23811343.712    23811343.1814   23811355.3654
      2774.397        2161.868
  -1960261.505 8  -1227039.49345  24816950.537    24816950.5834   24816963.4454
      3776.008        2942.344
   1888399.986 9   1452320.47745  24245756.581    24245756.1284   24245770.4324
     -3166.667       -2467.533
 80  4 14 20 10 20.0000000  0 10G01G22G03G19G18G16G31G27G13G14       0.000512894
    884834.390 9    683517.22948  21952886.345    21952885.7224   21952895.3024
     -1435.070       -1118.236
   1945128.173 8   1496262.28945  24177826.499    24177825.5304   24177839.8734
     -3035.284       -2365.156
  -1167429.830 9   -890092.45246  23330345.443    23330344.9924   23330357.2364
      1544.778        1203.723
  -1323344.198 9  -1017334.49748  21536303.608    21536303.1264   21536312.3904
      1871.907        1458.629
  -1228991.378 9   -935131.35849  20369717.389    20369716.8614   20369724.9024
      1647.651        1283.884
   1154463.988 9    893858.80048  21791912.706    21791911.9774   21791921.7134
     -1882.567       -1466.935
  -2152825.269 9  -1664248.41946  23367538.980    23367538.2604   23367551.1374
      3323.668        2589.871
  -1743314.708 9  -1348827.56846  23806065.240    23806064.7304   23806076.9244
      2774.027        2161.579
  -1998019.102 8  -1256460.95545  24809765.433    24809765.4544   24809778.4004
      3776.314        2942.582
   1920070.096 9   1476998.41345  24251783.285    24251782.8044   24251797.1054
     -3166.576       -2467.462
 80  4 14 20 10 30.0000000  0 10G01G22G03G19G18G16G31G27G13G14       0.000509179
    899208.700 9    694717.95948  21955621.703    21955621.0894   21955630.6734
     -1439.610       -1121.774
   1975493.222 8   1519923.27445  24183604.840    24183603.8514   24183618.2384
     -3037.670       -2367.016
  -1182847.648 9   -902106.32846  23327411.531    23327411.0764   23327423.3164
      1538.942        1199.176
  -1342049.922 9  -1031910.37548  21532744.003    21532743.5214   21532752.7954
      1869.359        1456.643
  -1245439.489 9   -947948.06849  20366587.421    20366586.8844   20366594.9314
      1642.106        1279.563
   1173317.244 9    908549.61948  21795500.392    21795499.6524   21795509.3994
     -1887.888       -1471.082
  -2186046.775 9  -1690135.23746  23361217.099    23361216.3594   23361229.2224
      3320.759        2587.604
  -1771046.311 9  -1370436.59346  23800788.124    23800787.5944   23800799.7444
      2772.474        2160.369
  -2035776.185 8  -1285882.00845  24802580.456    24802580.4794   24802593.4714
      3775.315        2941.804
   1951742.301 9   1501677.96045  24257810.363    24257809.8784   24257824.1934
     -3167.681       -2468.323
 80  4 14 20 10 40.0000000  0 10G01G22G03G19G18G16G31G27G13G14       0.000505469
    913628.103 9    705953.82248  21958365.659    21958365.0464   21958374.6284
     -1443.358       -1124.695
   2005882.542 9   1543603.18545  24189387.814    24189386.7934   24189401.2234
     -3039.398       -2368.362
  -1198207.214 9   -914074.79846  23324488.704    23324488.2454   23324500.4684
      1533.825        1195.188
  -1360730.219 9  -1046466.45148  21529189.252    21529188.7654   21529198.0384
      1867.599        1455.272
  -1261831.349 9   -960720.94949  20363468.169    20363467.6304   20363475.6794
      1637.184        1275.728
   1192223.056 9    923281.39448  21799098.096    21799097.3474   21799107.0914
     -1892.396       -1474.594
  -2219239.100 9  -1715999.30846  23354900.763    23354900.0414   23354912.8534
      3318.567        2585.896
  -1798762.398 9  -1392033.49546  23795513.877    23795513.3634   23795525.5414
      2771.608        2159.695
  -2073522.398 8  -1315294.58245  24795397.542    24795397.6144   24795410.5354
      3774.876        2941.462
   1983426.085 9   1526366.53545  24263839.664    24263839.1524   24263853.5014
     -3168.186       -2468.716
 80  4 14 20 10 50.0000000  0 10G01G22G03G19G18G16G31G27G13G14       0.000501764
    928086.118 9    717219.77448  21961116.964    21961116.3474   21961125.9334
     -1447.292       -1127.760
   2036290.774 8   1567297.84345  24195174.386    24195173.3654   24195187.8544
     -3041.390       -2369.914
  -1213513.830 9   -926002.01546  23321575.958    23321575.5034   23321587.6994
      1528.422        1190.978
  -1379391.374 9  -1061007.60448  21525638.142    21525637.6574   21525646.9284
      1865.557        1453.681
  -1278172.942 9   -973454.66049  20360358.460    20360357.9214   20360365.9734
      1632.053        1271.730
   1211175.674 9    938049.63548  21802704.688    21802703.9434   21802713.6754
     -1897.203       -1478.340
  -2252407.234 9  -1741844.54046  23348589.018    23348588.3124   23348601.1314
      3315.988        2583.887
  -1826468.519 9  -1413622.67346  23790241.571    23790241.0264   23790253.1454
      2770.539        2158.862
  -2111262.642 8  -1344702.52045  24788215.763    24788215.8254   24788228.7254
      3774.165        2940.908
   2015116.800 9   1551060.52245  24269870.260    24269869.7764   24269884.1334
     -3169.012       -2469.360
 80  4 14 20 11  0.0000000  0 10G01G22G03G19G18G16G31G27G13G14       0.000498062
    942583.073 9    728516.06848  21963875.677    21963875.0544   21963884.6474
     -1451.354       -1130.925
   2066718.433 8   1591007.62645  24200964.622    24200963.6164   24200978.1254
     -3043.401       -2371.481
  -1228766.308 9   -937887.05146  23318673.506    23318673.0634   23318685.2464
      1522.818        1186.611
  -1398032.444 9  -1075533.11048  21522090.848    21522090.3694   21522099.6354
      1863.399        1451.999
  -1294462.701 9   -986147.98149  20357258.632    20357258.0804   20357266.1404
      1626.697        1267.556
   1230176.594 9    952855.51048  21806320.467    21806319.7234   21806329.4624
     -1902.228       -1482.256
  -2285549.109 9  -1767669.29946  23342282.282    23342281.5734   23342294.3884
      3313.130        2581.660
  -1854163.776 9  -1435203.36346  23784971.351    23784970.8224   23784982.9634
      2769.257        2157.863
  -2148995.141 8  -1374104.41845  24781035.484    24781035.5174   24781048.4694
      3773.236        2940.184
   2046816.096 9   1575761.17745  24275902.483    24275902.0404   24275916.3914
     -3170.064       -2470.180
 80  4 14 20 11 10.0000000  0 10G01G22G03G19G18G16G31G27G13G14       0.000494365
    957119.677 9    739843.25948  21966641.927    21966641.3074   21966650.9024
     -1455.839       -1134.420
   2097164.545 8   1614731.79245  24206758.382    24206757.3954   24206771.9024
     -3045.669       -2373.249
  -1243963.971 9   -949729.37246  23315781.500    23315781.0744   23315793.2134
      1516.827        1181.943
  -1416654.281 9  -1090043.62448  21518547.220    21518546.7394   21518556.0214
      1861.126        1450.228
  -1310701.550 9   -998801.62949  20354168.476    20354167.9344   20354175.9884
      1621.236        1263.301
   1249225.899 9    967699.09348  21809945.443    21809944.7124   21809954.4454
     -1907.464       -1486.336
  -2318663.389 9  -1793472.55546  23335980.774    23335980.0674   23335992.8794
      3309.945        2579.178
  -1881846.536 9  -1456774.29546  23779703.435    23779702.8894   23779715.0984
      2767.455        2156.458
  -2186719.913 8  -1403500.28845  24773856.652    24773856.6764   24773869.7044
      3771.967        2939.195
   2078523.445 9   1600468.12145  24281936.227    24281935.8244   24281950.1664
     -3171.312       -2471.152
 80  4 14 20 11 20.0000000  0 10G01G22G03G19G18G16G31G27G13G14       0.000490673
    971699.137 9    751203.84448  21969416.338    21969415.7194   21969425.3074
     -1460.233       -1137.844
   2127629.913 8   1638470.95145  24212555.813    24212554.8064   24212569.3554
     -3047.641       -2374.785
  -1259104.016 9   -961526.79446  23312900.449    23312900.0024   23312912.1594
      1510.972        1177.381
  -1435255.774 9  -1104538.29348  21515007.469    21515006.9914   21515016.2604
      1858.984        1448.559
  -1326888.580 9  -1011414.90249  20351088.186    20351087.6484   20351095.7064
      1615.979        1259.204
   1268325.425 9    982581.80948  21813580.009    21813579.2524   21813588.9924
     -1912.671       -1490.393
  -2351749.050 9  -1819253.51246  23329684.706    23329684.0054   23329696.8274
      3307.029        2576.906
  -1909513.695 9  -1478333.13046  23774438.567    23774438.0294   23774450.1634
      2765.817        2155.182
  -2224434.119 8  -1432887.93345  24766679.863    24766679.8594   24766692.9294
      3770.812        2938.295
   2110241.004 9   1625183.00645  24287971.915    24287971.5444   24287985.9274
     -3172.426       -2472.020
 80  4 14 20 11 30.0000000  0 10G01G22G03G19G18G16G31G27G13G14       0.000486985
    986319.022 9    762595.92448  21972198.436    21972197.8174   21972207.4044
     -1464.354       -1141.055
   2158111.110 9   1662222.46145  24218356.284    24218355.2414   24218369.7994
     -3049.302       -2376.079
  -1274188.261 9   -973280.72946  23310030.004    23310029.5424   23310041.7054
      1505.233        1172.909
  -1453839.612 9  -1119019.20448  21511471.075    21511470.6144   21511479.8674
      1857.106        1447.096
  -1343025.475 9  -1023989.11149  20348017.444    20348016.9024   20348024.9534
      1610.797        1255.166
   1287474.315 9    997502.98748  21817223.951    21817223.1894   21817232.9304
     -1917.703       -1494.314
  -2384808.702 9  -1845014.21246  23323393.578    23323392.8934   23323405.7214
      3304.262        2574.750
  -1937168.321 9  -1499882.11246  23769176.046    23769175.4824   23769187.7194
      2764.504        2154.159
  -2262140.300 8  -1462269.32645  24759504.610    24759504.6084   24759517.6894
      3769.969        2937.638
   2141967.702 8   1649905.01845  24294009.357    24294008.9704   24294023.3864
     -3173.484       -2472.845
 80  4 14 20 11 40.0000000  0 10G01G22G03G19G18G16G31G27G13G14       0.000483299
   1000977.414 9    774018.01448  21974987.868    21974987.2474   21974996.8344
     -1468.408       -1144.214
   2188605.686 9   1685984.39945  24224159.289    24224158.2504   24224172.8184
     -3050.747       -2377.205
  -1289218.310 9   -984992.43946  23307169.871    23307169.4334   23307181.5784
      1499.703        1168.600
  -1472407.604 9  -1133487.76548  21507937.715    21507937.2514   21507946.5024
      1855.385        1445.755
  -1359113.455 9  -1036525.20149  20344956.014    20344955.4734   20344963.5264
      1605.720        1251.210
   1306669.847 9   1012460.51248  21820876.767    21820876.0074   21820885.7524
     -1922.453       -1498.015
  -2417843.824 9  -1870755.79346  23317107.139    23317106.4514   23317119.2954
      3301.689        2572.745
  -1964813.486 9  -1521423.81546  23763915.358    23763914.8114   23763926.9474
      2763.511        2153.385
  -2299842.142 8  -1491647.34845  24752330.164    24752330.1684   24752343.2494
      3769.438        2937.224
   2173700.805 9   1674632.02845  24300048.010    24300047.6404   24300062.0264
     -3174.201       -2473.403
 80  4 14 20 11 50.0000000  0 10G01G22G03G19G18G16G31G27G13G14       0.000479618
   1015681.599 9    785475.78448  21977786.001    21977785.3954   21977794.9804
     -1472.593       -1147.475
   2219119.843 9   1709761.60045  24229965.993    24229964.9844   24229979.6164
     -3052.330       -2378.439
  -1304187.482 9   -996656.70146  23304321.314    23304320.8844   23304333.0214
      1493.942        1164.111
  -1490952.276 9  -1147938.15648  21504408.788    21504408.3124   21504417.5534
      1853.336        1444.158
  -1375145.435 9  -1049017.65649  20341905.227    20341904.6994   20341912.7334
      1600.483        1247.130
   1325917.298 9   1027458.49948  21824539.459    21824538.6934   21824548.4574
     -1927.208       -1501.721
  -2450847.215 9  -1896472.65346  23310826.737    23310826.0564   23310838.8904
      3298.771        2570.471
  -1992443.800 9  -1542953.87546  23758657.449    23758656.8704   23758669.0764
      2762.380        2152.504
  -2337533.880 8  -1521017.48645  24745157.617    24745157.6284   24745170.7044
      3768.762        2936.698
   2205445.663 9   1699368.20845  24306088.937    24306088.5534   24306102.9364
     -3174.977       -2474.008
 80  4 14 20 12  0.0000000  0 10G01G22G03G19G18G16G31G27G13G14       0.000475941
   1030427.061 9    796965.72448  21980592.015    21980591.4004   21980600.9774
     -1476.841       -1150.785
   2249650.339 8   1733551.52545  24235775.811    24235774.8334   24235789.4634
     -3054.131       -2379.842
  -1319098.317 9  -1008275.53546  23301483.897    23301483.4484   23301495.6014
      1487.897        1159.400
  -1509476.491 9  -1162372.60548  21500883.749    21500883.2764   21500892.5124
      1851.165        1442.466
  -1391124.969 9  -1061469.24049  20338864.425    20338863.8974   20338871.9414
      1595.126        1242.955
   1345212.667 9   1042493.81748  21828211.270    21828210.5054   21828220.2724
     -1932.197       -1505.608
  -2483820.841 9  -1922166.33146  23304552.005    23304551.3434   23304564.1634
      3295.654        2568.042
  -2020062.124 9  -1564474.64846  23753401.876    23753401.3024   23753413.4724
      2760.991        2151.421
  -2375218.677 8  -1550382.21145  24737986.396    24737986.4454   24737999.4824
      3767.956        2936.070
   2237198.922 8   1724110.92445  24312131.452    24312131.0444   24312145.5034
     -3175.996       -2474.802
 80  4 14 20 12 10.0000000  0 10G01G22G03G19G18G16G31G27G13G14       0.000472266
   1045208.871 9    808483.98348  21983404.940    21983404.3194   21983413.9044
     -1479.830       -1153.114
   2280191.895 9   1757350.05345  24241587.761    24241586.7544   24241601.4104
     -3054.527       -2380.151
  -1333954.979 9  -1019852.14046  23298656.778    23298656.3284   23298668.4474
      1483.081        1155.648
  -1527984.896 9  -1176794.73948  21497361.712    21497361.2514   21497370.4964
      1850.165        1441.687
  -1407057.890 9  -1073884.50849  20335832.513    20335831.9674   20335840.0034
      1591.182        1239.882
   1364551.662 9   1057563.13148  21831891.371    21831890.6144   21831900.3904
     -1935.857       -1508.460
  -2516769.402 9  -1947840.47346  23298282.050    23298281.3894   23298294.1864
      3293.806        2566.602
  -2047673.043 9  -1585989.61046  23748147.699    23748147.0884   23748159.2634
      2760.904        2151.354
  -2412901.535 8  -1579745.41545  24730815.569    24730815.6164   24730828.6784
      3768.411        2936.424
   2268955.769 8   1748856.41745  24318174.626    24318174.2044   24318188.6984
     -3175.714       -2474.582
 80  4 14 20 12 20.0000000  0 10G01G22G03G19G18G16G31G27G13G14       0.000468593
   1060031.559 9    820034.09548  21986225.629    21986225.0174   21986234.6024
     -1484.575       -1156.812
   2310747.421 9   1781159.49145  24247402.379    24247401.3594   24247416.0224
     -3056.450       -2381.649
  -1348752.736 9  -1031382.83646  23295840.860    23295840.4084   23295852.5064
      1476.635        1150.625
  -1546471.849 9  -1191200.15848  21493843.784    21493843.3094   21493852.5544
      1847.366        1439.506
  -1422941.388 9  -1086261.26649  20332809.987    20332809.4434   20332817.4854
      1585.723        1235.628
   1383937.191 9   1072668.69548  21835580.339    21835579.5894   21835589.3694
     -1941.099       -1512.545
  -2549689.260 9  -1973492.24946  23292017.539    23292016.8814   23292029.6874
      3290.347        2563.907
  -2075273.009 9  -1607496.06746  23742895.602    23742895.0104   23742907.1454
      2759.214        2150.037
  -2450579.117 8  -1609104.54045  24723645.705    24723645.7674   24723658.8534
      3767.343        2935.592
   2300719.536 8   1773607.31745  24324219.092    24324218.7154   24324233.2224
     -3176.921       -2475.523
 80  4 14 20 12 30.0000000  0 10G01G22G03G19G18G16G31G27G13G14       0.000464925
   1074899.040 9    831619.10548  21989054.851    21989054.2364   21989063.8234
     -1488.784       -1160.091
   2341320.174 9   1804982.35845  24253220.245    24253219.2274   24253233.8814
     -3058.060       -2382.904
  -1363488.254 9  -1042865.03646  23293036.801    23293036.3294   23293048.4194
      1470.633        1145.948
  -1564933.124 9  -1205585.55948  21490330.707    21490330.2374   21490339.4724
      1844.999        1437.662
  -1438772.969 9  -1098597.55949  20329797.339    20329796.8074   20329804.8464
      1580.708        1231.721
   1403372.455 9   1087813.03248  21839278.775    21839278.0224   21839287.8174
     -1945.822       -1516.225
  -2582576.676 9  -1999118.75146  23285759.225    23285758.5484   23285771.3474
      3287.254        2561.497
  -2102858.080 9  -1628990.89146  23737646.302    23737645.6894   23737657.8464
      2757.913        2149.023
  -2488248.450 8  -1638457.24045  24716477.467    24716477.4934   24716490.5674
      3766.761        2935.138
   2332492.428 9   1798365.32545  24330265.315    24330264.9544   24330279.4494
     -3177.607       -2476.057
 80  4 14 20 12 40.0000000  0 10G01G22G03G19G18G16G31G27G13G14       0.000461260
   1089806.472 9    843235.25648  21991891.676    21991891.0694   21991900.6494
     -1492.989       -1163.368
   2371906.630 8   1828815.89745  24259040.734    24259039.6994   24259054.3714
     -3059.657       -2384.148
  -1378166.202 9  -1054302.39046  23290243.690    23290243.1884   23290255.2864
      1464.594        1141.242
  -1583372.668 9  -1219954.03348  21486821.797    21486821.3194   21486830.5434
      1842.597        1435.790
  -1454555.798 9  -1110895.86949  20326793.969    20326793.4234   20326801.4884
      1575.553        1227.704
   1422853.055 9   1102992.68648  21842985.841    21842985.0854   21842994.8804
     -1950.585       -1519.936
  -2615434.374 9  -2024722.09046  23279506.557    23279505.8734   23279518.6544
      3284.001        2558.962
  -2130431.233 9  -1650476.43946  23732399.301    23732398.7154   23732410.8584
      2756.404        2147.847
  -2525914.416 8  -1667807.29345  24709309.867    24709309.8984   24709322.9154
      3766.184        2934.689
   2364270.952 9   1823127.72545  24336312.621    24336312.2874   24336326.6984
     -3178.428       -2476.697
 80  4 14 20 12 50.0000000  0 10G01G22G03G19G18G16G31G27G13G14       0.000457600
   1104755.651 9    854883.93048  21994736.440    21994735.8244   21994745.4124
     -1497.804       -1167.120
   2402509.465 8   1852662.20045  24264864.305    24264863.3154   24264877.9914
     -3061.872       -2385.874
  -1392783.271 9  -1065692.29346  23287462.131    23287461.6554   23287473.7334
      1457.889        1136.017
  -1601788.164 9  -1234303.76548  21483317.436    21483316.9714   21483326.2024
      1839.552        1433.417
  -1470286.766 9  -1123153.76949  20323800.466    20323799.9204   20323807.9774
      1569.710        1223.151
   1442380.867 9   1118209.12448  21846701.877    21846701.1314   21846710.9354
     -1955.896       -1524.075
  -2648259.630 9  -2050300.15446  23273260.054    23273259.3804   23273272.1494
      3280.115        2555.934
  -2157988.734 9  -1671949.81646  23727155.273    23727154.6714   23727166.8124
      2754.177        2146.112
  -2563574.876 8  -1697153.04245  24702143.279    24702143.3014   24702156.3674
      3765.043        2933.800
   2396057.860 9   1847896.67745  24342361.540    24342361.2134   24342375.5484
     -3179.909       -2477.851
 80  4 14 20 13  0.0000000  0 10G01G22G03G19G18G16G31G27G13G14       0.000453945
   1119748.596 9    866566.70748  21997589.523    21997588.9084   21997598.5104
     -1501.153       -1169.730
   2433128.627 8   1876521.20645  24270690.984    24270690.0044   24270704.7044
     -3062.391       -2386.279
  -1407338.126 9  -1077033.72446  23284692.406    23284691.9364   23284704.0234
      1452.676        1131.955
  -1620178.368 9  -1248633.79248  21479817.902    21479817.4344   21479826.6654
      1838.053        1432.249
  -1485965.005 9  -1135370.58349  20320816.988    20320816.4614   20320824.5194
      1565.542        1219.903
   1461956.701 9   1133462.98448  21850427.053    21850426.3164   21850436.1184
     -1959.665       -1527.012
  -2681051.568 9  -2075852.27946  23267019.919    23267019.2244   23267031.9874
      3277.892        2554.202
  -2185529.249 9  -1693409.91346  23721914.487    23721913.8684   23721926.0064
      2753.573        2145.641
  -2601229.638 8  -1726494.36345  24694977.788    24694977.7584   24694990.8764
      3765.631        2934.258
   2427854.001 8   1872672.81245  24348412.209    24348411.8744   24348426.2324
     -3179.716       -2477.701
 80  4 14 20 13 10.0000000  0 10G01G22G03G19G18G16G31G27G13G14       0.000450292
   1134782.702 9    878281.56148  22000450.424    22000449.8294   22000459.4364
     -1505.712       -1173.282
   2463760.330 8   1900389.96745  24276520.030    24276519.0704   24276533.8304
     -3064.018       -2387.546
  -1421833.690 9  -1088328.95446  23281934.001    23281933.5084   23281945.5864
      1446.390        1127.057
  -1638545.438 9  -1262945.79048  21476322.771    21476322.3014   21476331.5434
      1835.329        1430.126
  -1501593.449 9  -1147548.59249  20317842.996    20317842.4704   20317850.5204
      1560.127        1215.683
   1481577.538 9   1148751.91448  21854160.815    21854160.0654   21854169.8724
     -1964.546       -1530.815
  -2713814.030 9  -2101381.42546  23260785.402    23260784.6954   23260797.4174
      3274.586        2551.625
  -2213056.286 9  -1714859.53546  23716676.260    23716675.6274   23716687.7604
      2751.782        2144.246
  -2638882.711 8  -1755834.37945  24687812.623    24687812.5464   24687825.7164
      3765.079        2933.828
   2459655.547 8   1897453.15545  24354463.906    24354463.5784   24354477.9604
     -3180.559       -2478.358
 80  4 14 20 13 20.0000000  0 10G01G22G03G19G18G16G31G27G13G14       0.000446644
   1149862.698 9    890032.17448  22003320.080    22003319.4734   22003329.0954
     -1510.538       -1177.043
   2494408.521 8   1924271.57945  24282352.240    24282351.2414   24282366.0984
     -3065.902       -2389.015
  -1436266.276 9  -1099575.09746  23279187.571    23279187.0434   23279199.1664
      1439.842        1121.955
  -1656885.255 9  -1277236.55248  21472832.817    21472832.3534   21472841.6044
      1832.372        1427.822
  -1517167.805 9  -1159684.45249  20314879.294    20314878.7554   20314886.8214
      1554.514        1211.310
   1501246.691 9   1164078.49648  21857903.760    21857903.0084   21857912.8304
     -1969.507       -1534.681
  -2746543.956 9  -2126885.21446  23254557.052    23254556.3434   23254569.0714
      3271.154        2548.951
  -2240566.197 9  -1736295.76346  23711441.251    23711440.6114   23711452.8334
      2749.934        2142.806
  -2676531.586 8  -1785171.11745  24680648.254    24680648.1864   24680661.3364
      3764.527        2933.398
   2491465.419 8   1922239.98145  24360517.201    24360516.8834   24360531.2744
     -3181.655       -2479.212
 80  4 14 20 13 30.0000000  0 10G01G22G03G19G18G16G31G27G13G14       0.000443000
   1164985.945 9    901816.48548  22006197.958    22006197.3574   22006206.9894
     -1514.095       -1179.814
   2525070.916 8   1948164.27945  24288187.184    24288186.1604   24288201.0174
     -3066.649       -2389.597
  -1450638.719 9  -1110774.39446  23276452.543    23276452.0524   23276464.1634
      1434.644        1117.904
  -1675200.447 9  -1291508.12648  21469347.541    21469347.0824   21469356.3464
      1830.621        1426.458
  -1532690.897 9  -1171780.37149  20311925.359    20311924.8304   20311932.8884
      1550.044        1207.826
   1520960.337 9   1179439.73548  21861655.168    21861654.4244   21861664.2404
     -1973.250       -1537.597
  -2779245.114 9  -2152366.59346  23248334.178    23248333.4664   23248346.1754
      3269.076        2547.332
  -2268063.092 9  -1757721.92546  23706208.799    23706208.1544   23706220.3184
      2749.468        2142.443
  -2714179.671 8  -1814507.23545  24673484.050    24673483.9984   24673497.1214
      3765.168        2933.897
   2523281.156 8   1947031.36745  24366571.625    24366571.2664   24366585.6984
     -3181.533       -2479.117
 80  4 14 20 13 40.0000000  0 10G01G22G03G19G18G16G31G27G13G14       0.000439358
   1180150.999 9    913633.36748  22009083.790    22009083.1904   22009092.8444
     -1518.748       -1183.440
   2555747.807 8   1972068.30445  24294024.872    24294023.8534   24294038.6974
     -3068.648       -2391.154
  -1464952.699 9  -1121928.13346  23273728.687    23273728.2074   23273740.3194
      1428.351        1113.001
  -1693490.718 9  -1305760.28648  21465867.017    21465866.5494   21465875.8244
      1827.578        1424.087
  -1548161.769 9  -1183835.59849  20308981.353    20308980.8264   20308988.8814
      1544.279        1203.334
   1540718.411 9   1194835.60448  21865415.036    21865414.2754   21865424.1054
     -1978.135       -1541.404
  -2811918.206 9  -2177826.10246  23242116.662    23242115.9384   23242128.6224
      3265.701        2544.702
  -2295548.660 9  -1779139.19846  23700978.425    23700977.7604   23700989.9654
      2747.888        2141.211
  -2751827.652 8  -1843843.26545  24666319.857    24666319.8254   24666332.9124
      3764.744        2933.567
   2555102.661 8   1971827.24345  24372627.122    24372626.7354   24372641.2414
     -3182.527       -2479.891
 80  4 14 20 13 50.0000000  0 10G01G22G03G19G18G16G31G27G13G14       0.000435721
   1195359.971 9    925484.48048  22011977.980    22011977.3884   22011987.0504
     -1522.522       -1186.381
   2586442.369 8   1995986.07945  24299865.893    24299864.9224   24299879.7394
     -3069.843       -2392.085
  -1479206.735 9  -1133035.15146  23271016.242    23271015.7494   23271027.8514
      1422.972        1108.809
  -1711753.324 9  -1319990.88648  21462391.768    21462391.3084   21462400.5764
      1825.419        1422.404
  -1563577.952 9  -1195848.20949  20306047.761    20306047.2234   20306055.2894
      1539.449        1199.571
   1560521.710 9   1210266.70948  21869183.495    21869182.7404   21869192.5774
     -1982.023       -1544.434
  -2844560.233 9  -2203261.39946  23235905.057    23235904.3374   23235916.9954
      3263.200        2542.753
  -2323021.556 9  -1800546.62946  23695750.513    23695749.8494   23695762.0474
      2747.209        2140.682
  -2789474.301 8  -1873178.25145  24659155.925    24659155.9094   24659168.9584
      3765.177        2933.904
   2586931.122 8   1996628.54945  24378683.942    24378683.5514   24378698.0654
     -3182.615       -2479.960
 80  4 14 20 14  0.0000000  0 10G01G22G03G19G18G16G31G27G13G14       0.000432088
   1210613.225 9    937370.09948  22014880.611    22014880.0094   22014889.6924
     -1527.854       -1190.536
   2617155.333 8   2019918.15945  24305710.393    24305709.4294   24305724.3304
     -3072.602       -2394.235
  -1493400.282 9  -1144095.03246  23268315.240    23268314.7664   23268326.9074
      1415.970        1103.353
  -1729987.526 9  -1334199.35348  21458921.901    21458921.4594   21458930.7224
      1821.639        1419.459
  -1578938.800 9  -1207817.70249  20303124.696    20303124.1614   20303132.2244
      1532.973        1194.524
   1580370.776 9   1225733.47848  21872960.660    21872959.9044   21872969.7594
     -1987.571       -1548.757
  -2877170.435 9  -2228671.90346  23229699.491    23229698.7884   23229711.4244
      3259.063        2539.530
  -2350480.405 9  -1821943.10946  23690525.250    23690524.5504   23690536.7454
      2744.817        2138.818
  -2827118.048 8  -1902510.98345  24651992.512    24651992.5184   24652005.5314
      3763.871        2932.886
   2618767.283 8   2021435.86445  24384742.238    24384741.8574   24384756.3774
     -3184.368       -2481.326
 80  4 14 20 14 10.0000000  0 10G01G22G03G19G18G16G31G27G13G14       0.000428460
   1225909.033 9    949288.87548  22017791.339    22017790.7394   22017800.4354
     -1531.629       -1193.477
   2647885.614 8   2043863.73645  24311558.222    24311557.2244   24311572.1764
     -3073.855       -2395.212
  -1507533.952 9  -1155108.27346  23265625.668    23265625.2044   23265637.3444
      1410.457        1099.057
  -1748194.068 9  -1348386.26848  21455457.328    21455456.8644   21455466.1494
      1819.362        1417.685
  -1594244.966 9  -1219744.58749  20300212.032    20300211.4974   20300219.5584
      1527.967        1190.624
   1600265.452 9   1241235.78848  21876746.524    21876745.7634   21876755.6264
     -1991.692       -1551.968
  -2909749.774 9  -2254058.37646  23223499.802    23223499.1094   23223511.6874
      3256.505        2537.536
  -2377925.155 9  -1843328.58646  23685302.655    23685301.9854   23685314.2024
      2743.841        2138.058
  -2864758.436 8  -1931841.08645  24644829.722    24644829.7284   24644842.7334
      3763.979        2932.971
   2650610.433 8   2046248.60945  24390801.854    24390801.4804   24390816.0164
     -3184.568       -2481.482
 80  4 14 20 14 20.0000000  0 10G01G22G03G19G18G16G31G27G13G14       0.000424836
   1241247.100 9    961240.58148  22020710.109    22020709.5014   22020719.2084
     -1536.213       -1197.049
   2678632.263 8   2067822.10145  24317409.167    24317408.1684   24317423.1114
     -3075.676       -2396.631
  -1521609.201 9  -1166075.97746  23262947.213    23262946.7644   23262958.9214
      1404.404        1094.341
  -1766374.350 9  -1362552.72048  21451997.735    21451997.2654   21452006.5624
      1816.468        1415.430
  -1609497.104 9  -1231629.36849  20297309.651    20297309.1144   20297317.1794
      1522.244        1186.164
   1620205.442 9   1256773.40748  21880540.994    21880540.2374   21880550.1084
     -1996.487       -1555.704
  -2942299.882 9  -2279422.06046  23217305.693    23217305.0004   23217317.5584
      3253.330        2535.062
  -2405356.287 9  -1864703.46746  23680082.677    23680081.9704   23680094.2104
      2742.215        2136.791
  -2902396.104 8  -1961169.07645  24637667.470    24637667.5034   24637680.4504
      3763.450        2932.558
   2682459.198 8   2071065.72945  24396862.534    24396862.1414   24396876.7284
     -3185.385       -2482.118
 80  4 14 20 14 30.0000000  0 10G01G22G03G19G18G16G31G27G13G14       0.000421215
   1256628.421 9    973225.98847  22023637.104    22023636.5014   22023646.2154
     -1539.907       -1199.928
   2709394.635 8   2091792.71245  24323263.076    24323262.0884   24323277.0034
     -3076.678       -2397.411
  -1535626.849 9  -1176998.80646  23260279.728    23260279.2684   23260291.4414
      1399.298        1090.362
  -1784528.250 9  -1376698.61448  21448543.155    21448542.7074   21448551.9784
      1814.486        1413.885
  -1624693.873 9  -1243471.00649  20294417.815    20294417.2754   20294425.3454
      1517.274        1182.291
   1640190.337 9   1272346.01548  21884344.017    21884343.2614   21884353.1454
     -2000.336       -1558.703
  -2974820.606 9  -2304762.85246  23211117.172    23211116.4914   23211129.0184
      3250.976        2533.228
  -2432773.882 9  -1886067.81746  23674865.270    23674864.5964   23674876.7504
      2741.487        2136.224
  -2940031.141 8  -1990495.02745  24630505.728    24630505.8244   24630518.6794
      3763.839        2932.862
   2714312.274 8   2095886.22745  24402924.038    24402923.6474   24402938.2554
     -3185.106       -2481.901
 80  4 14 20 14 40.0000000  0 10G01G22G03G19G18G16G31G27G13G14       0.000417595
   1272051.937 9    985244.27547  22026572.140    22026571.5314   22026581.2424
     -1544.730       -1203.686
   2740171.526 8   2115774.64545  24329119.789    24329118.7864   24329133.6984
     -3078.723       -2399.005
  -1549589.032 9  -1187878.42046  23257622.805    23257622.3444   23257634.5054
      1393.209        1085.617
  -1802657.982 9  -1390825.67748  21445093.180    21445092.7174   21445102.0144
      1811.472        1411.537
  -1639835.816 9  -1255269.92449  20291536.409    20291535.8664   20291543.9374
      1511.187        1177.548
   1660219.539 9   1287953.14848  21888155.471    21888154.7174   21888164.6184
     -2005.463       -1562.698
  -3007312.664 9  -2330081.30046  23204934.125    23204933.4374   23204945.9374
      3247.533        2530.545
  -2460179.180 9  -1907422.54346  23669650.206    23669649.5134   23669661.7154
      2739.621        2134.770
  -2977665.261 8  -2019820.25445  24623344.157    24623344.2674   24623357.1014
      3763.181        2932.349
   2746168.262 8   2120708.99845  24408986.107    24408985.7434   24409000.3194
     -3186.042       -2482.630
 80  4 14 20 14 50.0000000  0 10G01G22G03G19G18G16G31G27G13G14       0.000413978
   1287517.986 9    997295.70347  22029515.258    22029514.6464   22029524.3724
     -1548.334       -1206.494
   2770964.374 8   2139769.00745  24334979.513    24334978.5334   24334993.4354
     -3079.722       -2399.783
  -1563495.431 9  -1198714.56646  23254976.487    23254976.0284   23254988.1904
      1388.250        1081.753
  -1820762.867 9  -1404933.38048  21441647.927    21441647.4684   21441656.7604
      1809.626        1410.098
  -1654921.795 9  -1267025.23449  20288665.648    20288665.1124   20288673.1804
      1506.185        1173.651
   1680295.394 9   1303596.63248  21891975.797    21891975.0634   21891984.9564
     -2009.548       -1565.882
  -3039775.592 9  -2355377.05846  23198756.606    23198755.9204   23198768.4054
      3245.211        2528.736
  -2487570.698 9  -1928766.57346  23664437.708    23664437.0454   23664449.1914
      2738.842        2134.162
  -3015297.450 8  -2049143.97745  24616182.955    24616183.0014   24616195.9364
      3763.529        2932.620
   2778029.374 8   2145535.74045  24415049.143    24415048.8004   24415063.3884
     -3186.030       -2482.621
 80  4 14 20 15  0.0000000  0 10G01G22G03G19G18G16G31G27G13G14       0.000410364
   1303028.959 9   1009382.14547  22032466.930    22032466.3204   22032476.0374
     -1553.015       -1210.142
   2801775.282 8   2163777.42745  24340842.696    24340841.7384   24340856.6574
     -3081.684       -2401.312
  -1577343.728 9  -1209505.41846  23252341.253    23252340.7664   23252352.9374
      1382.216        1077.051
  -1838841.117 9  -1419020.32548  21438207.744    21438207.2834   21438216.5944
      1806.856        1407.940
  -1669949.657 9  -1278735.25549  20285805.940    20285805.4094   20285813.4864
      1500.240        1169.018
   1700420.366 9   1319278.39348  21895805.498    21895804.7534   21895814.6544
     -2014.608       -1569.824
  -3072207.351 9  -2380648.53646  23192585.030    23192584.3264   23192596.8104
      3241.951        2526.196
  -2514946.234 9  -1950098.12446  23659228.323    23659227.6604   23659239.8184
      2737.154        2132.847
  -3052925.865 8  -2078464.76845  24609022.471    24609022.4474   24609035.4174
      3763.025        2932.227
   2809898.269 8   2170368.54745  24421113.659    24421113.3034   24421127.9294
     -3186.914       -2483.310
 80  4 14 20 15 10.0000000  0 10G01G22G03G19G18G16G31G27G13G14       0.000406753
   1318583.225 9   1021502.31647  22035426.846    22035426.2284   22035435.9504
     -1557.883       -1213.935
   2832601.888 8   2187798.07545  24346708.865    24346707.8954   24346722.8524
     -3083.736       -2402.911
  -1591136.064 9  -1220252.68046  23249716.637    23249716.1444   23249728.3314
      1376.162        1072.334
  -1856895.733 9  -1433088.85448  21434772.051    21434771.6034   21434780.8984
      1803.979        1405.698
  -1684922.180 9  -1290402.15749  20282956.770    20282956.2284   20282964.3044
      1494.210        1164.319
   1720592.178 9   1334996.65348  21899644.089    21899643.3424   21899653.2604
     -2019.806       -1573.875
  -3104610.203 9  -2405897.46946  23186418.947    23186418.2474   23186430.7104
      3238.564        2523.556
  -2542309.418 9  -1971420.05746  23654021.232    23654020.5834   23654032.7414
      2735.454        2131.523
  -3090553.094 8  -2107784.63745  24601862.201    24601862.1844   24601875.1054
      3762.448        2931.778
   2841771.632 8   2195204.84445  24427179.016    24427178.6454   24427193.3524
     -3187.769       -2483.976
 80  4 14 20 15 20.0000000  0 10G01G22G03G19G18G16G31G27G13G14       0.000403143
   1334181.610 9   1033656.86447  22038395.133    22038394.5284   22038404.2594
     -1561.945       -1217.100
   2863445.788 8   2211832.20545  24352578.343    24352577.3454   24352592.3344
     -3085.271       -2404.107
  -1604871.267 9  -1230955.42846  23247102.904    23247102.4054   23247114.6094
      1370.699        1068.077
  -1874925.070 9  -1447137.68848  21431341.190    21431340.7324   21431350.0264
      1801.705        1403.926
  -1699838.360 9  -1302025.15449  20280118.308    20280117.7844   20280125.8424
      1488.842        1160.137
   1740812.062 9   1350752.36048  21903491.852    21903491.0934   21903501.0054
     -2024.343       -1577.410
  -3136982.480 9  -2431122.59046  23180258.681    23180257.9774   23180270.4404
      3235.728        2521.346
  -2569659.696 9  -1992731.95846  23648816.682    23648816.0414   23648828.1534
      2734.457        2130.746
  -3128177.928 8  -2137102.63445  24594702.405    24594702.4034   24594715.2784
      3762.440        2931.771
   2873650.121 8   2220045.12445  24433245.362    24433244.9784   24433259.7514
     -3188.061       -2484.203
 80  4 14 20 15 30.0000000  0 10G01G22G03G19G18G16G31G27G13G14       0.000399533
   1349819.195 9   1045841.96047  22041370.896    22041370.2814   22041380.0214
     -1565.667       -1220.000
   2894303.638 8   2235877.19545  24358450.476    24358449.4504   24358464.4654
     -3086.435       -2405.014
  -1618553.625 9  -1241616.98546  23244499.238    23244498.7184   23244510.9154
      1365.627        1064.125
  -1892933.472 9  -1461170.20948  21427914.312    21427913.8374   21427923.1394
      1799.854        1402.484
  -1714702.501 9  -1313607.60249  20277289.758    20277289.2274   20277297.2974
      1483.896        1156.283
   1761076.114 9   1366542.49648  21907348.008    21907347.2424   21907357.1674
     -2028.597       -1580.725
  -3169327.569 9  -2456326.53346  23174103.594    23174102.8674   23174115.3124
      3233.169        2519.352
  -2597001.734 9  -2014037.38846  23643613.606    23643612.9684   23643625.0984
      2733.805        2130.238
  -3165804.007 8  -2166421.58245  24587542.371    24587542.3884   24587555.2184
      3762.716        2931.986
   2905529.545 8   2244886.13845  24439311.899    24439311.5294   24439326.3024
     -3188.026       -2484.176
 80  4 14 20 15 40.0000000  0 10G01G22G03G19G18G16G31G27G13G14       0.000395925
   1365499.103 9   1058060.03247  22044354.704    22044354.0994   22044363.8334
     -1569.685       -1223.131
   2925178.746 8   2259935.63845  24364325.874    24364324.8484   24364339.8924
     -3087.999       -2406.233
  -1632179.612 9  -1252234.63346  23241906.316    23241905.7654   23241917.9494
      1360.212        1059.905
  -1910918.404 9  -1475184.44448  21424491.884    21424491.4174   21424500.7284
      1797.716        1400.818
  -1729512.367 9  -1325147.75849  20274471.540    20274471.0054   20274479.0884
      1478.680        1152.218
   1781388.146 9   1382370.01048  21911213.288    21911212.5184   21911222.4444
     -2033.279       -1584.373
  -3201642.335 9  -2481506.84046  23167954.274    23167953.5254   23167965.9594
      3230.347        2517.153
  -2624332.358 9  -2035333.96346  23638412.751    23638412.1824   23638424.2634
      2732.874        2129.512
  -3203426.996 8  -2195738.12945  24580382.915    24580382.9294   24580395.7314
      3762.528        2931.840
   2937414.391 8   2269731.37045  24445379.457    24445379.1154   24445393.8774
     -3188.365       -2484.440
 80  4 14 20 15 50.0000000  0 10G01G22G03G19G18G16G31G27G13G14       0.000392318
   1381217.851 9   1070308.37347  22047345.914    22047345.3094   22047355.0604
     -1573.834       -1226.364
   2956067.942 8   2284005.05545  24370203.955    24370202.9254   24370218.0304
     -3089.665       -2407.531
  -1645752.675 9  -1262811.03246  23239323.434    23239322.8924   23239335.0484
      1354.591        1055.525
  -1928882.844 9  -1489182.70548  21421073.371    21421072.9034   21421082.2084
      1795.347        1398.972
  -1744270.527 9  -1336647.62449  20271663.145    20271662.6124   20271670.6964
      1473.176        1147.929
   1801746.536 9   1398233.65248  21915087.386    21915086.6164   21915096.5514
     -2038.173       -1588.187
  -3233929.544 9  -2506665.68146  23161810.195    23161809.4204   23161821.8334
      3227.278        2514.762
  -2651653.391 9  -2056623.06046  23633213.741    23633213.1404   23633225.1684
      2731.567        2128.494
  -3241048.549 8  -2225053.54645  24573223.744    24573223.6714   24573236.5284
      3762.058        2931.474
   2969301.351 8   2294578.25245  24451447.419    24451447.0834   24451461.8564
     -3188.803       -2484.782
 80  4 14 20 16  0.0000000  0 10G01G22G03G19G18G16G31G27G13G14       0.000388711
   1396977.587 9   1082588.64447  22050344.923    22050344.3174   22050354.0784
     -1577.849       -1229.493
   2986972.388 8   2308086.36645  24376084.924    24376083.9094   24376099.0204
     -3091.058       -2408.617
  -1659269.598 9  -1273343.69046  23236751.202    23236750.7064   23236762.8354
      1349.053        1051.210
  -1946823.982 9  -1503162.81248  21417659.275    21417658.8154   21417668.1244
      1793.136        1397.249
  -1758974.434 9  -1348105.21449  20268865.091    20268864.5454   20268872.6284
      1467.892        1143.812
   1822153.484 9   1414135.13148  21918970.721    21918969.9574   21918979.9014
     -2042.915       -1591.882
  -3266186.496 9  -2531800.95646  23155671.867    23155671.1064   23155683.4814
      3224.383        2512.506
  -2678962.561 9  -2077902.87546  23628016.928    23628016.3674   23628028.4464
      2730.507        2127.668
  -3278666.078 8  -2254365.83345  24566065.329    24566065.2564   24566078.0984
      3761.804        2931.276
   3001191.621 8   2319427.71145  24457516.006    24457515.6644   24457530.4864
     -3189.016       -2484.948
 80  4 14 20 16 10.0000000  0 10G01G22G03G19G18G16G31G27G13G14       0.000385104
   1412774.480 9   1094897.87847  22053350.994    22053350.3944   22053360.1654
     -1582.409       -1233.046
   3017887.908 8   2332176.27745  24381968.010    24381967.0064   24381982.0844
     -3093.005       -2410.134
  -1672733.703 9  -1283835.18546  23234189.052    23234188.5554   23234200.6914
      1342.928        1046.437
  -1964745.779 9  -1517127.84748  21414248.872    21414248.4034   21414257.7264
      1790.348        1395.076
  -1773628.266 9  -1359523.78649  20266076.565    20266076.0294   20266084.1084
      1462.003        1139.223
   1842605.607 9   1430071.81248  21922862.657    21922861.8904   21922871.8514
     -2048.391       -1596.149
  -3298417.775 9  -2556916.20346  23149538.423    23149537.6644   23149550.0044
      3220.984        2509.858
  -2706263.435 9  -2099176.29346  23622821.841    23622821.2174   23622833.2284
      2728.798        2126.336
  -3316282.750 8  -2283677.43845  24558907.071    24558907.0264   24558919.8174
      3760.802        2930.495
   3033081.385 8   2344276.77545  24463584.496    24463584.1454   24463599.0014
     -3189.788       -2485.549
 80  4 14 20 16 20.0000000  0 10G01G22G03G19G18G16G31G27G13G14       0.000381499
   1428615.408 9   1107241.42147  22056365.460    22056364.8534   22056374.6354
     -1586.077       -1235.904
   3048820.630 8   2356279.62245  24387854.378    24387853.4174   24387868.4734
     -3093.993       -2410.904
  -1686138.127 9  -1294280.17746  23231638.258    23231637.7684   23231649.8964
      1337.663        1042.335
  -1982640.955 9  -1531072.13848  21410843.534    21410843.0654   21410852.3834
      1788.371        1393.536
  -1788225.402 9  -1370898.17749  20263298.808    20263298.2784   20263306.3634
      1457.135        1135.430
   1863110.631 9   1446049.71248  21926764.659    21926763.8894   21926773.8584
     -2052.901       -1599.663
  -3330616.327 9  -2582005.95546  23143411.199    23143410.4454   23143422.7784
      3218.435        2507.871
  -2733549.434 9  -2120438.02146  23617629.401    23617628.8164   23617640.8964
      2728.064        2125.764
  -3353891.217 8  -2312982.67245  24551750.378    24551750.3424   24551763.1194
      3760.642        2930.370
   3064977.354 8   2369130.67545  24469654.186    24469653.8124   24469668.6984
     -3189.712       -2485.490
 80  4 14 20 16 30.0000000  0 10G01G22G03G19G18G16G31G27G13G14       0.000377895
   1444496.276 9   1119616.08847  22059387.514    22059386.9154   22059396.6994
     -1589.931       -1238.907
   3079766.399 9   2380393.13545  24393743.255    24393742.2734   24393757.3454
     -3095.115       -2411.778
  -1699487.026 9  -1304681.90846  23229098.035    23229097.5574   23229109.6894
      1332.278        1038.139
  -2000513.947 9  -1544999.14148  21407442.414    21407441.9484   21407451.2754
      1786.348        1391.959
  -1802771.499 9  -1382232.80049  20260530.794    20260530.2684   20260538.3294
      1452.205        1131.588
   1883663.768 9   1462065.11148  21930675.807    21930675.0424   21930685.0204
     -2057.558       -1603.292
  -3362786.213 9  -2607073.36546  23137289.428    23137288.6784   23137301.0014
      3215.661        2505.710
  -2760825.316 9  -2141691.99346  23612439.064    23612438.4784   23612450.4664
      2727.284        2125.156
  -3391495.186 9  -2342284.40545  24544594.540    24544594.4934   24544607.2494
      3760.419        2930.197
   3096875.572 8   2393986.33345  24475724.294    24475723.9024   24475738.8244
     -3189.822       -2485.575
 80  4 14 20 16 40.0000000  0 10G01G22G03G19G18G16G31G27G13G14       0.000374293
   1460418.722 9   1132023.15547  22062417.478    22062416.8874   22062426.6714
     -1594.669       -1242.599
   3110727.206 9   2404518.36245  24399635.002    24399634.0064   24399649.0624
     -3097.218       -2413.417
  -1712778.200 9  -1315038.65446  23226568.812    23226568.3344   23226580.4554
      1325.812        1033.100
  -2018362.843 9  -1558907.37048  21404045.868    21404045.4074   21404054.7444
      1783.300        1389.584
  -1817264.262 9  -1393525.86249  20257772.921    20257772.3904   20257780.4704
      1446.255        1126.952
   1904266.675 9   1478119.28548  21934596.432    21934595.6734   21934605.6594
     -2063.152       -1607.651
  -3394924.016 9  -2632115.78946  23131173.784    23131173.0264   23131185.3564
      3211.750        2502.662
  -2788090.067 9  -2162937.18746  23607250.678    23607250.0814   23607262.1014
      2725.550        2123.805
  -3429092.711 9  -2371581.12345  24537439.928    24537439.8774   24537452.6774
      3759.070        2929.145
   3128779.069 8   2418846.11245  24481795.406    24481794.9814   24481809.9414
     -3190.963       -2486.465
 80  4 14 20 16 50.0000000  0 10G01G22G03G19G18G16G31G27G13G14       0.000370693
   1476379.247 9   1144459.88847  22065454.695    22065454.0954   22065463.8894
     -1597.780       -1245.023
   3141701.089 9   2428653.79145  24405529.234    24405528.2354   24405543.2844
     -3097.945       -2413.983
  -1726012.585 9  -1325351.14546  23224050.382    23224049.9094   23224062.0344
      1320.706        1029.122
  -2036190.168 9  -1572798.78948  21400653.445    21400652.9864   21400662.3364
      1781.789        1388.407
  -1831706.569 9  -1404779.61149  20255024.640    20255024.1054   20255032.1914
      1441.917        1123.572
   1924916.377 9   1494209.91948  21938525.952    21938525.2094   21938535.2104
     -2067.149       -1610.765
  -3427031.188 9  -2657134.33646  23125063.969    23125063.1954   23125075.5214
      3209.343        2500.787
  -2815346.362 9  -2184175.87146  23602064.037    23602063.4394   23602075.4344
      2725.390        2123.680
  -3466685.556 9  -2400874.20645  24530286.210    24530286.2304   24530298.9824
      3759.259        2929.293
   3160686.184 8   2443708.70445  24487867.202    24487866.7804   24487881.7484
     -3190.784       -2486.325
 80  4 14 20 17  0.0000000  0 10G01G22G03G19G18G16G31G27G13G14       0.000367092
   1492372.705 9   1156922.28847  22068498.166    22068497.5704   22068507.3804
     -1601.844       -1248.190
   3172684.046 8   2452796.30145  24411425.170    24411424.1634   24411439.2024
     -3099.674       -2415.330
  -1739192.407 9  -1335621.12746  23221542.349    23221541.8904   23221553.9654
      1314.283        1024.117
  -2053999.268 9  -1586676.00648  21397264.502    21397264.0354   21397273.3864
      1779.097        1386.309
  -1846103.290 9  -1415997.83649  20252285.044    20252284.5044   20252292.5944
      1436.462        1119.321
   1945609.028 9   1510334.02248  21942463.662    21942462.9224   21942472.9314
     -2072.276       -1614.761
  -3459112.140 9  -2682132.45346  23118959.117    23118958.3784   23118970.6804
      3205.876        2498.085
  -2842598.147 9  -2205410.98546  23596878.141    23596877.5134   23596889.4754
      2724.022        2122.615
  -3504277.510 9  -2430166.59845  24523132.678    24523132.7114   24523145.4504
      3758.308        2928.552
   3192593.672 8   2468571.58945  24493939.061    24493938.6404   24493953.6404
     -3191.672       -2487.017
 80  4 14 20 17 10.0000000  0 10G01G22G03G19G18G16G31G27G13G14       0.000363498
   1508406.394 9   1169416.03647  22071549.303    22071548.7004   22071558.5084
     -1605.224       -1250.824
   3203683.655 8   2476951.76945  24417324.252    24417323.2764   24417338.3204
     -3100.655       -2416.095
  -1752308.261 9  -1345841.26346  23219046.499    23219046.0374   23219058.0784
      1308.537        1019.639
  -2071782.436 9  -1600533.02548  21393880.482    21393880.0124   21393889.3774
      1777.177        1384.813
  -1860445.185 9  -1427173.33849  20249555.855    20249555.3304   20249563.4194
      1431.598        1115.531
   1966351.496 9   1526496.94148  21946410.850    21946410.1094   21946420.1254
     -2076.521       -1618.068
  -3491157.621 9  -2707102.93646  23112861.029    23112860.2934   23112872.5874
      3202.912        2495.776
  -2869837.030 9  -2226636.03346  23591694.742    23591694.1344   23591706.1494
      2723.456        2122.173
  -3541860.118 9  -2459451.69045  24515980.924    24515980.9394   24515993.6814
      3758.008        2928.318
   3224509.115 8   2493440.67745  24500012.446    24500012.0464   24500027.0604
     -3191.745       -2487.074
 80  4 14 20 17 20.0000000  0 10G01G22G03G19G18G16G31G27G13G14       0.000359907
   1524479.009 9   1181940.12147  22074607.849    22074607.2484   22074617.0604
     -1608.800       -1253.610
   3234696.872 8   2501117.81745  24423225.930    24423224.9504   24423240.0254
     -3101.580       -2416.816
  -1765362.622 9  -1356013.47946  23216562.337    23216561.8854   23216573.9054
      1302.824        1015.188
  -2089541.597 9  -1614371.32648  21390501.034    21390500.5694   21390509.9264
      1775.117        1383.208
  -1874733.975 9  -1438307.46149  20246836.802    20246836.2714   20246844.3614
      1426.665        1111.687
   1987140.950 9   1542696.48248  21950366.972    21950366.2334   21950376.2734
     -2080.849       -1621.441
  -3523169.024 9  -2732046.85746  23106769.435    23106768.6974   23106780.9874
      3199.858        2493.396
  -2897066.023 9  -2247853.44246  23586513.259    23586512.6004   23586524.5554
      2722.863        2121.711
  -3579434.330 8  -2488730.24945  24508830.744    24508830.7454   24508843.4724
      3757.431        2927.868
   3256429.041 8   2518313.24745  24506086.676    24506086.2704   24506101.2954
     -3191.746       -2487.075
 80  4 14 20 17 30.0000000  0 10G01G22G03G19G18G16G31G27G13G14       0.000356319
   1540591.265 9   1194495.09047  22077673.923    22077673.3254   22077683.1714
     -1613.306       -1257.122
   3265723.857 8   2525294.62645  24429130.244    24429129.2554   24429144.3474
     -3103.533       -2418.337
  -1778355.329 9  -1366137.64746  23214089.872    23214089.4364   23214101.4694
      1296.075        1009.929
  -2107275.576 9  -1628190.01048  21387126.364    21387125.9074   21387135.2634
      1771.983        1380.766
  -1888969.485 9  -1449400.06349  20244127.860    20244127.3454   20244135.4384
      1420.802        1107.118
   2007977.739 9   1558932.90348  21954332.119    21954331.3714   21954341.4114
     -2086.157       -1625.577
  -3555145.587 9  -2756963.63446  23100684.466    23100683.7314   23100696.0074
      3195.805        2490.238
  -2924285.104 9  -2269063.03346  23581333.541    23581332.9174   23581344.9594
      2721.265        2120.466
  -3616998.475 8  -2518000.93845  24501682.516    24501682.4584   24501695.1774
      3755.862        2926.646
   3288353.387 8   2543189.26145  24512161.743    24512161.3044   24512176.3384
     -3192.805       -2487.900
 80  4 14 20 17 40.0000000  0 10G01G22G03G19G18G16G31G27G13G14       0.000352734
   1556740.442 9   1207078.82747  22080747.035    22080746.4414   22080756.2944
     -1616.600       -1259.688
   3296762.220 8   2549480.28345  24435036.705    24435035.7034   24435050.8294
     -3104.194       -2418.852
  -1791288.942 9  -1376215.77646  23211628.661    23211628.2354   23211640.2714
      1290.605        1005.666
  -2124986.141 9  -1641990.45048  21383756.163    21383755.7044   21383765.0534
      1770.090        1379.291
  -1903154.671 9  -1460453.45849  20241428.527    20241427.9984   20241436.0854
      1416.217        1103.546
   2028859.279 9   1575204.19148  21958305.774    21958305.0284   21958315.0704
     -2090.164       -1628.699
  -3587090.158 9  -2781855.48546  23094605.579    23094604.8244   23094617.1034
      3193.103        2488.132
  -2951496.502 9  -2290266.74246  23576155.406    23576154.7704   23576166.7614
      2720.982        2120.246
  -3654554.550 8  -2547265.33345  24494535.775    24494535.7164   24494548.4364
      3755.425        2926.305
   3320280.425 8   2568067.38045  24518237.318    24518236.9194   24518251.9334
     -3192.682       -2487.804
 80  4 14 20 17 50.0000000  0 10G01G22G03G19G18G16G31G27G13G14       0.000349151
   1572924.802 9   1219689.97947  22083826.836    22083826.2444   22083836.1104
     -1619.615       -1262.038
   3327809.314 8   2573672.74645  24440944.846    24440943.8304   24440958.9164
     -3104.574       -2419.149
  -1804165.786 9  -1386249.67546  23209178.274    23209177.8474   23209189.8914
      1285.369        1001.586
  -2142675.930 9  -1655774.69548  21380389.927    21380389.4664   21380398.8114
      1768.466        1378.025
  -1917291.852 9  -1471469.44549  20238738.307    20238737.7884   20238745.8764
      1411.853        1100.145
   2049782.675 9   1591508.09748  21962287.388    21962286.6534   21962296.7044
     -2093.870       -1631.587
  -3619005.743 9  -2806724.74646  23088532.203    23088531.4474   23088543.7244
      3190.657        2486.226
  -2978702.551 9  -2311466.21046  23570978.205    23570977.5784   23570989.5884
      2720.864        2120.154
  -3692104.876 8  -2576525.26845  24487390.144    24487390.1304   24487402.8334
      3755.400        2926.286
   3352207.655 8   2592945.64245  24524312.927    24524312.5164   24524327.6244
     -3192.164       -2487.401
 80  4 14 20 18  0.0000000  0 10G01G22G03G19G18G16G31G27G13G14       0.000345571
   1589148.477 9   1232331.76547  22086914.134    22086913.5354   22086923.4084
     -1624.369       -1265.742
   3358869.615 8   2597875.50945  24446855.502    24446854.4814   24446869.5324
     -3106.775       -2420.864
  -1816980.574 9  -1396235.22146  23206739.674    23206739.2724   23206751.3194
      1278.315         996.090
  -2160339.296 9  -1669538.35548  21377028.706    21377028.2334   21377037.5924
      1764.977        1375.307
  -1931374.945 9  -1482443.28349  20236058.382    20236057.8584   20236065.9494
      1405.524        1095.214
   2070752.761 9   1607848.38148  21966277.887    21966277.1484   21966287.2174
     -2099.370       -1635.873
  -3650886.205 9  -2831566.63746  23082465.532    23082464.7794   23082477.0324
      3186.185        2482.742
  -3005897.703 9  -2332657.21146  23565803.121    23565802.5224   23565814.5264
      2718.914        2118.634
  -3729644.890 8  -2605777.16545  24480246.490    24480246.4654   24480259.1994
      3753.543        2924.839
   3384138.762 8   2617826.92845  24530389.282    24530388.8824   24530403.9974
     -3193.352       -2488.326
 80  4 14 20 18 10.0000000  0 10G01G22G03G19G18G16G31G27G13G14       0.000341993
   1605408.502 9   1245001.88447  22090008.341    22090007.7374   22090017.6384
     -1627.839       -1268.446
   3389939.510 8   2622085.73745  24452767.969    24452766.9524   24452782.0574
     -3107.514       -2421.439
  -1829735.770 9  -1406174.32146  23204312.462    23204312.0134   23204324.0814
      1272.533         991.584
  -2177979.550 9  -1683284.00748  21373671.865    21373671.4184   21373680.7704
      1762.878        1373.671
  -1945406.594 9  -1493377.03949  20233388.240    20233387.7214   20233395.8064
      1400.653        1091.418
   2091765.359 9   1624221.79348  21970276.481    21970275.7424   21970285.8244
     -2103.368       -1638.988
  -3682733.092 9  -2856382.37446  23076405.235    23076404.5104   23076416.7324
      3183.009        2480.267
  -3033084.831 9  -2353841.95646  23560629.557    23560628.9414   23560640.9254
      2718.370        2118.210
  -3767178.930 8  -2635024.40845  24473103.946    24473103.9464   24473116.6624
      3753.204        2924.575
   3416069.696 8   2642708.07245  24536465.606    24536465.1814   24536480.3804
     -3193.055       -2488.095
 80  4 14 20 18 20.0000000  0 10G01G22G03G19G18G16G31G27G13G14       0.000338417
   1621707.665 9   1257702.49147  22093109.996    22093109.4044   22093119.2894
     -1631.581       -1271.362
   3421021.763 8   2646305.60445  24458682.809    24458681.8294   24458696.9124
     -3108.587       -2422.276
  -1842429.347 9  -1416065.41446  23201896.947    23201896.4844   23201908.5714
      1266.610         986.969
  -2195595.626 9  -1697010.81148  21370319.650    21370319.1844   21370328.5374
      1760.741        1372.006
  -1959385.651 9  -1504269.81249  20230728.107    20230727.5934   20230735.6754
      1395.593        1087.475
   2112821.871 9   1640629.42548  21974283.434    21974282.6994   21974292.7774
     -2107.493       -1642.202
  -3714544.458 9  -2881170.41846  23070351.706    23070351.0054   23070363.1894
      3179.669        2477.664
  -3060262.061 9  -2375018.97846  23555457.865    23555457.2554   23555469.2444
      2717.496        2117.529
  -3804705.651 9  -2664265.95645  24465962.806    24465962.7954   24465975.5154
      3752.658        2924.149
   3448002.398 8   2667590.60845  24542542.249    24542541.8484   24542557.0604
     -3193.090       -2488.122
 80  4 14 20 18 30.0000000  0 10G01G22G03G19G18G16G31G27G13G14       0.000334844
   1638044.660 9   1270432.58347  22096218.856    22096218.2634   22096228.1584
     -1635.576       -1274.475
   3452115.211 8   2670534.19745  24464599.780    24464598.8274   24464613.8934
     -3109.915       -2423.310
  -1855062.614 9  -1425909.50846  23199492.920    23199492.4634   23199504.5304
      1260.308         982.058
  -2213189.804 9  -1710720.56248  21366971.595    21366971.1294   21366980.4844
      1758.339        1370.134
  -1973313.786 9  -1515122.90649  20228077.663    20228077.1554   20228085.2354
      1390.292        1083.344
   2133919.830 9   1657069.35048  21978298.275    21978297.5244   21978307.6184
     -2111.834       -1645.585
  -3746320.527 9  -2905930.96346  23064304.911    23064304.2044   23064316.3684
      3175.836        2474.677
  -3087429.167 9  -2396188.14646  23550288.147    23550287.4874   23550299.4714
      2716.209        2116.526
  -3842226.339 8  -2693502.79145  24458822.817    24458822.7914   24458835.5064
      3751.875        2923.539
   3479935.875 8   2692473.74945  24548619.066    24548618.6734   24548633.8904
     -3193.430       -2488.387
 80  4 14 20 18 40.0000000  0 10G01G22G03G19G18G16G31G27G13G14       0.000331274
   1654420.048 9   1283192.59247  22099335.007    22099334.4154   22099344.3244
     -1639.282       -1277.363
   3483220.692 8   2694772.15845  24470519.027    24470518.0184   24470533.2194
     -3111.089       -2424.225
  -1867634.164 9  -1435705.51246  23197100.630    23197100.1764   23197112.2464
      1254.199         977.298
  -2230761.618 9  -1724412.87348  21363627.792    21363627.3154   21363636.6774
      1756.259        1368.514
  -1987190.479 9  -1525935.91349  20225437.012    20225436.4964   20225444.5854
      1385.241        1079.409
   2155059.390 9   1673541.69848  21982321.027    21982320.2914   21982330.3924
     -2115.837       -1648.704
  -3778059.653 9  -2930662.71746  23058265.127    23058264.4144   23058276.5844
      3172.195        2471.840
  -3114585.104 9  -2417348.56046  23545120.466    23545119.8284   23545131.8324
      2715.183        2115.727
  -3879740.762 8  -2722734.73745  24451684.019    24451683.9624   24451696.7254
      3751.338        2923.121
   3511871.246 8   2717358.35145  24554696.222    24554695.8714   24554711.0794
     -3193.494       -2488.437
 80  4 14 20 18 50.0000000  0 10G01G22G03G19G18G16G31G27G13G14       0.000327708
   1670833.292 9   1295982.09647  22102458.364    22102457.7874   22102467.7084
     -1643.480       -1280.634
   3514338.587 8   2719019.78745  24476440.624    24476439.5674   24476454.8874
     -3112.661       -2425.450
  -1880144.420 9  -1445453.75746  23194720.000    23194719.5354   23194731.6094
      1247.698         972.232
  -2248312.132 9  -1738088.59448  21360288.034    21360287.5684   21360296.9224
      1753.686        1366.509
  -2001015.210 9  -1536708.42749  20222806.248    20222805.7484   20222813.8274
      1379.581        1074.998
   2176239.436 9   1690045.59648  21986351.490    21986350.7444   21986360.8564
     -2120.280       -1652.166
  -3809761.872 9  -2955365.71446  23052232.358    23052231.6424   23052243.8014
      3168.112        2468.659
  -3141729.624 9  -2438500.14946  23539955.069    23539954.4384   23539966.3354
      2713.577        2114.476
  -3917250.870 8  -2751963.32145  24444546.024    24444545.9554   24444558.7684
      3750.582        2922.531
   3543807.985 8   2742244.02345  24560773.654    24560773.2724   24560788.5734
     -3193.996       -2488.828
 80  4 14 20 19  0.0000000  0 10G01G22G03G19G18G16G31G27G13G14       0.000324144
   1687285.114 9   1308801.65647  22105589.072    22105588.4924   22105598.4144
     -1646.960       -1283.345
   3545468.453 8   2743276.73245  24482364.504    24482363.4514   24482378.8124
     -3113.391       -2426.019
  -1892592.755 9  -1455153.75246  23192351.146    23192350.6704   23192362.7604
      1241.948         967.752
  -2265840.115 9  -1751746.75948  21356952.567    21356952.1014   21356961.4534
      1751.842        1365.072
  -2014786.946 9  -1547439.65349  20220185.594    20220185.0624   20220193.1534
      1374.719        1071.210
   2197460.085 9   1706581.11848  21990389.659    21990388.9384   21990399.0584
     -2123.917       -1655.000
  -3841427.271 9  -2980040.01846  23046206.590    23046205.8714   23046218.0194
      3164.966        2466.207
  -3168861.289 9  -2459641.64146  23534792.008    23534791.3894   23534803.3714
      2712.675        2113.773
  -3954756.958 9  -2781188.79445  24437408.857    24437408.7454   24437421.5364
      3750.700        2922.623
   3575745.769 8   2767130.49045  24566851.277    24566850.8434   24566866.2064
     -3193.613       -2488.530
 80  4 14 20 19 10.0000000  0 10G01G22G03G19G18G16G31G27G13G14       0.000320583
   1703776.604 9   1321652.13347  22108727.339    22108726.7434   22108736.6774
     -1650.817       -1286.351
   3576609.875 8   2767542.69945  24488290.540    24488289.5444   24488304.9084
     -3114.415       -2426.817
  -1904979.621 9  -1464805.84746  23189994.001    23189993.5434   23190005.6134
      1235.979         963.101
  -2283344.887 9  -1765386.83548  21353621.524    21353621.0574   21353630.4074
      1749.599        1363.324
  -2028505.573 9  -1558129.49549  20217575.013    20217574.5034   20217582.5864
      1369.549        1067.181
   2218722.096 9   1723148.88348  21994435.721    21994434.9814   21994445.1264
     -2127.968       -1658.157
  -3873057.398 9  -3004686.84646  23040187.560    23040186.8384   23040198.9754
      3161.589        2463.576
  -3195978.942 9  -2480772.28646  23529631.705    23529631.0694   23529642.9754
      2711.347        2112.738
  -3992259.624 8  -2810411.60345  24430272.292    24430272.2034   24430284.9624
      3750.493        2922.462
   3607684.519 8   2792017.72845  24572929.101    24572928.6624   24572944.0314
     -3193.593       -2488.514
 80  4 14 20 19 20.0000000  0 10G01G22G03G19G18G16G31G27G13G14       0.000317023
   1720307.431 9   1334533.26647  22111873.081    22111872.4764   22111882.4194
     -1654.958       -1289.578
   3607761.810 9   2791816.85445  24494218.637    24494217.6704   24494232.9904
     -3115.683       -2427.805
  -1917307.484 9  -1474411.96946  23187648.083    23187647.6184   23187659.7054
      1230.051         958.481
  -2300826.867 9  -1779009.14948  21350294.801    21350294.3354   21350303.6924
      1747.181        1361.440
  -2042171.523 9  -1568778.28549  20214974.478    20214973.9544   20214982.0354
      1364.104        1062.938
   2240024.808 9   1739748.35248  21998489.508    21998488.7874   21998498.9364
     -2132.162       -1661.425
  -3904652.796 9  -3029306.58346  23034175.111    23034174.4164   23034186.5394
      3157.866        2460.675
  -3223083.178 9  -2501892.44346  23524473.961    23524473.3114   23524485.1894
      2709.914        2111.621
  -4029759.185 8  -2839631.99645  24423136.319    24423136.2244   24423148.9954
      3749.961        2922.048
   3639622.592 8   2816904.43345  24579006.756    24579006.3934   24579021.7534
     -3193.578       -2488.502
 80  4 14 20 19 30.0000000  0 10G01G22G03G19G18G16G31G27G13G14       0.000313462
   1736875.831 9   1347443.66647  22115025.966    22115025.3564   22115035.3244
     -1658.801       -1292.572
   3638922.061 8   2816097.50745  24500148.301    24500147.3504   24500162.6144
     -3116.495       -2428.438
  -1929581.437 9  -1483976.07946  23185312.438    23185311.9634   23185324.0574
      1224.620         954.249
  -2318288.483 9  -1792615.59948  21346971.970    21346971.5114   21346980.8604
      1745.037        1359.769
  -2055788.221 9  -1579388.70249  20212383.289    20212382.7794   20212390.8604
      1359.139        1059.069
   2261365.420 9   1756377.36348  22002550.512    22002549.7984   22002559.9614
     -2136.062       -1664.464
  -3936216.032 9  -3053901.29146  23028168.792    23028168.0934   23028180.2154
      3154.727        2458.229
  -3250177.990 9  -2523005.23946  23519317.919    23519317.2844   23519329.1724
      2708.955        2110.874
  -4067257.984 8  -2868851.78345  24416000.485    24416000.4084   24416013.1364
      3749.764        2921.894
   3671556.640 8   2841788.00145  24585083.657    24585083.3374   24585098.6904
     -3193.335       -2488.313
 80  4 14 20 19 40.0000000  0 10G01G22G03G19G18G16G31G27G13G14       0.000309903
   1753485.019 9   1360385.86047  22118186.617    22118186.0124   22118195.9814
     -1662.985       -1295.832
   3670093.977 8   2840387.26245  24506080.165    24506079.1554   24506094.4704
     -3117.930       -2429.556
  -1941798.232 9  -1493495.66146  23182987.630    23182987.1624   23182999.2654
      1218.730         949.660
  -2335726.053 9  -1806203.30848  21343653.703    21343653.2404   21343662.6004
      1742.438        1357.744
  -2069352.908 9  -1589958.58949  20209802.008    20209801.5034   20209809.5754
      1353.765        1054.882
   2282747.428 9   1773038.62447  22006619.406    22006618.6904   22006628.8504
     -2140.317       -1667.779
  -3967745.499 9  -3078469.67946  23022168.906    23022168.2154   23022180.3324
      3151.137        2455.431
  -3277260.166 9  -2544108.25946  23514164.393    23514163.7604   23514175.5504
      2707.472        2109.718
  -4104752.970 8  -2898068.59845  24408865.369    24408865.3034   24408878.0134
      3749.323        2921.550
   3703490.280 8   2866671.25645  24591160.492    24591160.1834   24591175.5774
     -3193.464       -2488.414
 80  4 14 20 19 50.0000000  0 10G01G22G03G19G18G16G31G27G13G14       0.000306345
   1770131.017 9   1373356.72947  22121354.267    22121353.6544   22121363.6514
     -1666.153       -1298.301
   3701275.305 8   2864684.33245  24512013.801    24512012.7414   24512028.0824
     -3118.329       -2429.867
  -1953959.923 9  -1502972.29246  23180673.317    23180672.8554   23180684.9684
      1213.689         945.732
  -2353142.055 9  -1819774.21148  21340339.534    21340339.0804   21340348.4284
      1740.805        1356.471
  -2082867.523 9  -1600489.45749  20207230.255    20207229.7574   20207237.8284
      1349.234        1051.351
   2304167.578 9   1789729.61448  22010695.558    22010694.8334   22010705.0054
     -2143.618       -1670.352
  -3999243.224 9  -3103013.33046  23016175.071    23016174.3754   23016186.4914
      3148.449        2453.337
  -3304331.067 9  -2565202.41146  23509012.906    23509012.2644   23509024.0974
      2706.779        2109.178
  -4142248.117 9  -2927285.54745  24401730.223    24401730.1814   24401742.8524
      3749.883        2921.987
   3735421.978 8   2891553.00945  24597236.970    24597236.6654   24597252.0704
     -3192.721       -2487.834
 80  4 14 20 20  0.0000000  0 10G01G22G03G19G18G16G31G27G13G14       0.000302789
   1786816.330 9   1386358.23647  22124529.396    22124528.7864   22124538.7994
     -1670.454       -1301.652
   3732467.695 8   2888990.01545  24517949.544    24517948.4644   24517963.8764
     -3119.744       -2430.969
  -1966063.781 9  -1512403.87146  23178370.038    23178369.5814   23178381.6564
      1207.525         940.929
  -2370534.462 9  -1833326.72848  21337029.875    21337029.4114   21337038.7634
      1738.128        1354.385
  -2096328.570 9  -1610978.58749  20204668.710    20204668.2144   20204676.2894
      1343.479        1046.867
   2325628.237 9   1806452.16048  22014779.409    22014778.6894   22014788.8654
     -2148.071       -1673.822
  -4030706.101 9  -3127529.80846  23010187.859    23010187.1674   23010199.2594
      3144.589        2450.329
  -3331387.262 9  -2586285.14846  23503864.247    23503863.6664   23503875.4864
      2704.893        2107.709
  -4179741.968 9  -2956501.47345  24394595.324    24394595.3154   24394607.9514
      3749.412        2921.620
   3767354.009 8   2916435.01045  24603313.496    24603313.1834   24603328.5924
     -3193.178       -2488.191
 80  4 14 20 20 10.0000000  0 10G01G22G03G19G18G16G31G27G13G14       0.000299234
   1803541.033 9   1399390.44247  22127712.022    22127711.4204   22127721.4354
     -1673.920       -1304.353
   3763669.771 8   2913303.24545  24523887.115    24523886.0514   24523901.5274
     -3120.126       -2431.267
  -1978109.562 9  -1521790.19246  23176077.808    23176077.3604   23176089.4004
      1202.242         936.812
  -2387903.818 9  -1846861.28248  21333724.603    21333724.1374   21333733.4794
      1736.370        1353.016
  -2109736.209 9  -1621426.09949  20202117.315    20202116.8334   20202124.9034
      1338.698        1043.141
   2347129.936 9   1823206.69147  22018871.078    22018870.3604   22018880.5394
     -2151.674       -1676.629
  -4062133.426 9  -3152018.60146  23004207.426    23004206.7014   23004218.8174
      3141.512        2447.931
  -3358427.578 9  -2607355.51846  23498718.681    23498718.0644   23498729.8414
      2703.813        2106.867
  -4217234.891 9  -2985716.68045  24387460.618    24387460.6194   24387473.2374
      3749.901        2922.001
   3799286.930 8   2941317.71445  24609390.180    24609389.8594   24609405.2864
     -3192.782       -2487.882
 80  4 14 20 20 20.0000000  0 10G01G22G03G19G18G16G31G27G13G14       0.000295681
   1820304.088 9   1412452.52347  22130901.940    22130901.3484   22130911.3674
     -1678.245       -1307.723
   3794879.700 8   2937622.58345  24529826.179    24529825.1504   24529840.7464
     -3121.389       -2432.251
  -1990099.394 9  -1531132.91746  23173796.262    23173795.7834   23173807.7924
      1196.208         932.110
  -2405253.120 9  -1860380.20848  21330423.117    21330422.6714   21330432.0124
      1733.947        1351.128
  -2123093.163 9  -1631834.11749  20199575.581    20199575.0934   20199583.1574
      1333.193        1038.852
   2368670.419 9   1839991.44047  22022970.139    22022969.4144   22022979.5994
     -2155.943       -1679.956
  -4093527.532 9  -3176481.50546  22998233.290    22998232.5554   22998244.6804
      3137.828        2445.061
  -3385454.587 9  -2628415.45746  23493575.540    23493574.9384   23493586.8004
      2702.066        2105.506
  -4254728.457 9  -3014932.39145  24380325.792    24380325.7584   24380338.4044
      3749.396        2921.607
   3831219.385 8   2966200.07345  24615466.777    24615466.4704   24615481.9454
     -3193.249       -2488.246
 80  4 14 20 20 30.0000000  0 10G01G22G03G19G18G16G31G27G13G14       0.000292128
   1837103.587 9   1425543.00647  22134098.805    22134098.2194   22134108.2454
     -1682.023       -1310.667
   3826095.297 8   2961946.32845  24535766.360    24535765.3674   24535781.0324
     -3122.238       -2432.913
  -2002036.211 9  -1540434.33046  23171524.780    23171524.3014   23171536.2994
      1190.718         927.832
  -2422584.680 9  -1873885.31548  21327125.025    21327124.5724   21327133.9314
      1731.923        1349.550
  -2136402.260 9  -1642204.84249  20197042.954    20197042.4484   20197050.5324
      1328.186        1034.950
   2390246.393 9   1856803.85347  22027075.944    22027075.2184   22027085.4064
     -2159.711       -1682.892
  -4124892.777 9  -3200921.92546  22992264.655    22992263.9374   22992276.0504
      3134.779        2442.685
  -3412471.294 9  -2649467.46046  23488434.494    23488433.8724   23488445.6654
      2700.891        2104.590
  -4292223.970 9  -3044149.63145  24373190.623    24373190.5224   24373203.1864
      3749.327        2921.554
   3863149.508 8   2991080.58445  24621542.949    24621542.6384   24621558.1634
     -3193.247       -2488.244
 80  4 14 20 20 40.0000000  0 10G01G22G03G19G18G16G31G27G13G14       0.000288578
   1853941.424 9   1438663.36147  22137302.969    22137302.3714   22137312.4164
     -1685.299       -1313.220
   3857319.319 8   2986276.64345  24541708.132    24541707.1584   24541722.8904
     -3122.395       -2433.035
  -2013917.329 9  -1549692.34246  23169263.869    23169263.3934   23169275.3584
      1185.755         923.965
  -2439895.007 9  -1887373.87148  21323831.000    21323830.5404   21323839.8904
      1730.314        1348.297
  -2149660.181 9  -1652535.69549  20194520.045    20194519.5614   20194527.6304
      1323.649        1031.415
   2411861.040 9   1873646.38747  22031189.101    22031188.3714   22031198.5674
     -2163.000       -1685.455
  -4156226.006 9  -3225337.38846  22986302.134    22986301.3954   22986313.5064
      3132.092        2440.591
  -3439475.172 9  -2670509.40646  23483295.800    23483295.1634   23483306.9494
      2700.158        2104.019
  -4329717.821 9  -3073365.57345  24366055.732    24366055.6454   24366068.2754
      3749.767        2921.896
   3895081.194 8   3015962.33345  24627619.409    24627619.0924   24627634.6694
     -3192.860       -2487.943
 80  4 14 20 20 50.0000000  0 10G01G22G03G19G18G16G31G27G13G14       0.000285027
   1870812.104 9   1451809.30847  22140513.384    22140512.7844   22140522.8314
     -1688.767       -1315.922
   3888545.788 8   3010608.87445  24547650.397    24547649.4524   24547665.1944
     -3122.848       -2433.388
  -2025748.517 9  -1558911.44846  23167012.458    23167011.9664   23167023.9414
      1180.599         919.947
  -2457188.374 9  -1900849.21548  21320540.161    21320539.7254   21320549.0504
      1728.426        1346.825
  -2162872.192 9  -1662830.76949  20192005.885    20192005.4064   20192013.4754
      1318.841        1027.668
   2433509.638 9   1890515.38647  22035308.724    22035307.9934   22035318.1904
     -2166.619       -1688.275
  -4187532.178 9  -3249731.77546  22980344.732    22980344.0094   22980356.1144
      3129.255        2438.381
  -3466472.378 9  -2691546.15546  23478158.354    23478157.7454   23478169.5394
      2699.383        2103.415
  -4367215.223 9  -3102584.27745  24358920.156    24358920.0784   24358932.7054
      3749.900        2922.000
   3927009.393 8   3040841.33745  24633695.231    24633694.8894   24633710.5424
     -3192.676       -2487.799
 80  4 14 20 21  0.0000000  0 10G01G22G03G19G18G16G31G27G13G14       0.000281479
   1887721.939 9   1464985.77347  22143731.247    22143730.6524   22143740.7074
     -1693.241       -1319.409
   3919780.499 8   3034947.52145  24553594.249    24553593.2844   24553609.0714
     -3124.172       -2434.420
  -2037524.811 9  -1568087.78446  23164771.512    23164771.0014   23164782.9744
      1174.624         915.291
  -2474458.894 9  -1914306.74848  21317253.686    21317253.2384   21317262.5784
      1725.622        1344.641
  -2176032.069 9  -1673085.21949  20189501.643    20189501.1664   20189509.2424
      1313.099        1023.194
   2455198.146 9   1907415.47847  22039435.938    22039435.2074   22039445.4104
     -2171.163       -1691.815
  -4218806.338 9  -3274101.21646  22974393.439    22974392.7074   22974404.8094
      3125.549        2435.493
  -3493458.541 9  -2712574.32246  23473023.005    23473022.4074   23473034.1604
      2697.813        2102.192
  -4404710.171 9  -3131801.08145  24351785.071    24351784.9684   24351797.5914
      3749.101        2921.377
   3958939.043 8   3065721.47945  24639771.325    24639770.9954   24639786.6644
     -3193.300       -2488.286
 80  4 14 20 21 10.0000000  0 10G01G22G03G19G18G16G31G27G13G14       0.000277933
   1904672.067 9   1478193.62247  22146956.770    22146956.1894   22146966.2464
     -1697.255       -1322.536
   3951023.188 8   3059292.40545  24559539.592    24559538.6474   24559554.4704
     -3124.862       -2434.957
  -2049245.813 9  -1577221.03046  23162541.049    23162540.5664   23162552.5344
      1169.148         911.024
  -2491705.438 9  -1927745.60748  21313971.784    21313971.3424   21313980.6664
      1723.201        1342.754
  -2189138.556 9  -1683298.06449  20187007.578    20187007.0894   20187015.1684
      1307.781        1019.050
   2476928.172 9   1924347.92147  22043571.060    22043570.3214   22043580.5464
     -2175.291       -1695.032
  -4250048.240 9  -3298445.51346  22968448.278    22968447.5484   22968459.6564
      3122.363        2433.010
  -3520433.151 9  -2733593.48146  23467889.904    23467889.2974   23467901.0994
      2696.666        2101.298
  -4442200.811 9  -3161014.52345  24344650.796    24344650.7154   24344663.3064
      3748.601        2920.988
   3990870.696 8   3090603.17545  24645847.773    24645847.4474   24645863.1514
     -3193.492       -2488.435
 80  4 14 20 21 20.0000000  0 10G01G22G03G19G18G16G31G27G13G14       0.000274389
   1921662.197 9   1491432.64847  22150189.923    22150189.3314   22150199.4064
     -1700.758       -1325.266
   3982273.863 8   3083643.50545  24565486.478    24565485.5214   24565501.3294
     -3125.299       -2435.298
  -2060912.324 9  -1586311.82046  23160320.972    23160320.4874   23160332.4394
      1164.189         907.160
  -2508928.887 9  -1941166.46248  21310694.267    21310693.8284   21310703.1574
      1721.552        1341.469
  -2202192.611 9  -1693470.05649  20184523.477    20184522.9874   20184531.0734
      1303.086        1015.392
   2498699.067 9   1941312.21847  22047713.959    22047713.2154   22047723.4414
     -2178.855       -1697.809
  -4281258.366 9  -3322765.06046  22962509.180    22962508.4564   22962520.5444
      3119.672        2430.913
  -3547397.459 9  -2754604.61146  23462758.723    23462758.1044   23462769.8944
      2696.223        2100.953
  -4479685.905 9  -3190223.63545  24337517.570    24337517.4894   24337530.0884
      3748.529        2920.932
   4022803.345 8   3115485.65745  24651924.415    24651924.0724   24651939.8314
     -3192.988       -2488.043
 80  4 14 20 21 30.0000000  0 10G01G22G03G19G18G16G31G27G13G14       0.000270843
   1938686.669 9   1504698.43147  22153429.612    22153429.0224   22153439.1014
     -1704.640       -1328.291
   4013528.087 8   3107997.36845  24571433.991    24571433.0244   24571448.8774
     -3126.098       -2435.921
  -2072529.742 9  -1595364.36046  23158110.220    23158109.7374   23158121.7024
      1158.787         902.951
  -2526136.188 9  -1954574.74048  21307419.825    21307419.3874   21307428.7024
      1719.441        1339.824
  -2215200.154 9  -1703605.80649  20182048.226    20182047.7404   20182055.8204
      1297.936        1011.379
   2520505.166 9   1958303.93847  22051863.564    22051862.8144   22051873.0514
     -2182.813       -1700.893
  -4312440.706 9  -3347062.94546  22956575.358    22956574.6224   22956586.7214
      3116.314        2428.297
  -3574357.959 9  -2775612.75146  23457628.272    23457627.6844   23457639.5714
      2695.417        2100.325
  -4517169.806 9  -3219431.84545  24330384.604    24330384.4754   24330397.0814
      3747.880        2920.426
   4054731.223 8   3140364.40845  24658000.167    24657999.8014   24658015.5744
     -3193.028       -2488.074
 80  4 14 20 21 40.0000000  0 10G01G22G03G19G18G16G31G27G13G14       0.000267300
   1955751.088 9   1517995.34647  22156676.903    22156676.3054   22156686.3834
     -1708.759       -1331.501
   4044791.382 8   3132358.29445  24577383.218    24577382.2104   24577398.1544
     -3127.076       -2436.682
  -2084092.734 9  -1604374.48146  23155909.833    23155909.3704   23155921.3164
      1153.241         898.629
  -2543323.120 9  -1967967.14648  21304149.264    21304148.8244   21304158.1234
      1717.405        1338.238
  -2228155.899 9  -1713701.19149  20179582.840    20179582.3484   20179590.4294
      1292.652        1007.261
   2542351.072 9   1975326.67647  22056020.719    22056019.9864   22056030.2354
     -2186.884       -1704.065
  -4343589.116 9  -3371334.40346  22950647.997    22950647.2654   22950659.3494
      3112.877        2425.618
  -3601310.445 9  -2796614.68646  23452499.362    23452498.7574   23452510.5954
      2694.542        2099.643
  -4554647.405 9  -3248635.13445  24323252.839    24323252.7324   24323265.2764
      3747.212        2919.905
   4086659.967 8   3165243.83945  24664076.067    24664075.7164   24664091.5184
     -3193.275       -2488.266
 80  4 14 20 21 50.0000000  0 10G01G22G03G19G18G16G31G27G13G14       0.000263760
   1972855.859 9   1531323.70047  22159931.867    22159931.2634   22159941.3524
     -1712.576       -1334.475
   4076062.753 8   3156725.51345  24583333.979    24583332.9834   24583348.9444
     -3127.670       -2437.145
  -2095599.592 9  -1613340.86946  23153720.131    23153719.6794   23153731.6224
      1147.730         894.335
  -2560490.595 9  -1981344.39048  21300882.401    21300881.9584   21300891.2634
      1715.705        1336.913
  -2241058.854 9  -1723755.44449  20177127.479    20177126.9994   20177135.0704
      1287.568        1003.300
   2564236.750 9   1992380.41147  22060185.455    22060184.7264   22060194.9844
     -2190.626       -1706.981
  -4374704.119 9  -3395579.82546  22944726.986    22944726.2554   22944738.3244
      3109.727        2423.164
  -3628254.331 9  -2817609.87146  23447372.076    23447371.4644   23447383.4094
      2693.845        2099.100
  -4592118.840 9  -3277833.60145  24316122.238    24316122.1314   24316134.6084
      3746.812        2919.594
   4118590.626 8   3190124.76345  24670152.351    24670152.0014   24670167.8264
     -3193.243       -2488.241
 80  4 14 20 22  0.0000000  0 10G01G22G03G19G18G16G31G27G13G14       0.000260221
   1989997.631 9   1544680.88847  22163193.874    22163193.2714   22163203.3524
     -1715.867       -1337.039
   4107339.325 8   3181096.78645  24589285.786    24589284.6614   24589300.7134
     -3127.788       -2437.237
  -2107052.434 9  -1622265.16546  23151540.732    23151540.2884   23151552.2174
      1142.752         890.456
  -2577642.107 9  -1994709.19448  21297618.577    21297618.1404   21297627.4324
      1714.475        1335.955
  -2253912.095 9  -1733770.95449  20174681.592    20174681.1124   20174689.1784
      1282.969         999.716
   2586158.683 9   2009462.39847  22064357.109    22064356.3664   22064366.6304
     -2193.922       -1709.550
  -4405787.671 9  -3419800.73846  22938811.963    22938811.2364   22938823.2854
      3106.893        2420.956
  -3655192.170 9  -2838600.39846  23442245.965    23442245.3644   23442257.2354
      2693.606        2098.914
  -4629587.802 9  -3307030.17545  24308992.113    24308992.0304   24309004.4314
      3746.998        2919.739
   4150520.266 8   3215004.89345  24676228.459    24676228.0804   24676243.9524
     -3192.757       -2487.863
 80  4 14 20 22 10.0000000  0 10G01G22G03G19G18G16G31G27G13G14       0.000256684
   2007180.123 9   1558069.80947  22166463.627    22166463.0184   22166473.1104
     -1720.466       -1340.623
   4138624.362 8   3205474.69845  24595239.216    24595238.0794   24595254.1414
     -3129.142       -2438.292
  -2118448.348 9  -1631145.10046  23149372.151    23149371.6964   23149383.6564
      1136.622         885.679
  -2594774.800 9  -2008059.33048  21294358.337    21294357.8924   21294367.1984
      1712.223        1334.200
  -2266712.711 9  -1743745.46449  20172245.725    20172245.2434   20172253.3174
      1277.313         995.309
   2608121.331 9   2026576.10347  22068536.497    22068535.7474   22068546.0344
     -2198.464       -1713.089
  -4436835.989 9  -3443994.19446  22932903.663    22932902.9154   22932914.9374
      3102.955        2417.887
  -3682121.013 9  -2859583.87946  23437121.549    23437120.9454   23437132.8614
      2692.333        2097.922
  -4667050.816 9  -3336222.10545  24301863.130    24301863.0144   24301875.4574
      3745.835        2918.832
   4182451.624 9   3239886.35045  24682304.903    24682304.5024   24682320.3734
     -3193.350       -2488.325
 80  4 14 20 22 20.0000000  0  9G01G03G19G18G16G31G27G13G14          0.000253160
   2024404.426 9   1571491.30547  22169741.332    22169740.7324   22169750.8344
     -1724.303       -1343.613
  -2129787.428 9  -1639980.75146  23147214.372    23147213.9334   23147225.9014
      1131.272         881.511
  -2611888.632 9  -2021394.77148  21291101.694    21291101.2384   21291110.5294
      1710.597        1332.933
  -2279460.535 9  -1753678.83549  20169819.901    20169819.4114   20169827.4934
      1272.335         991.430
   2630126.041 9   2043722.58847  22072723.890    22072723.1404   22072733.4374
     -2202.408       -1716.162
  -4467848.723 9  -3468159.93146  22927002.110    22927001.3554   22927013.3744
      3099.696        2415.348
  -3709041.466 9  -2880560.84846  23431998.763    23431998.1414   23432010.0254
      2691.862        2097.555
  -4704505.538 9  -3365407.54945  24294735.697    24294735.6024   24294748.0154
      3745.296        2918.412
   4214384.707 9   3264769.16245  24688381.659    24688381.2714   24688397.1374
     -3193.144       -2488.164
 80  4 14 20 22 30.0000000  0  9G01G03G19G18G16G31G27G13G14          0.000249630
   2041669.068 9   1584944.23947  22173026.729    22173026.1154   22173036.2234
     -1728.370       -1346.782
  -2141071.564 9  -1648773.59646  23145067.056    23145066.6194   23145078.6134
      1125.727         877.190
  -2628984.208 9  -2034715.98648  21287848.518    21287848.0734   21287857.3414
      1708.694        1331.450
  -2292155.850 9  -1763571.29149  20167404.079    20167403.5824   20167411.6584
      1266.898         987.193
   2652171.857 9   2060901.09547  22076919.114    22076918.3534   22076928.6534
     -2206.554       -1719.393
  -4498826.792 9  -3492298.65246  22921107.153    22921106.3994   22921118.4024
      3096.133        2412.571
  -3735956.126 9  -2901533.26946  23426877.021    23426876.4064   23426888.3354
      2691.238        2097.069
  -4741952.372 9  -3394586.85745  24287609.774    24287609.6704   24287622.0284
      3744.408        2917.721
   4246317.339 8   3289651.62145  24694458.335    24694457.9474   24694473.8324
     -3193.121       -2488.146
 80  4 14 20 22 40.0000000  0  9G01G03G19G18G16G31G27G13G14          0.000246100
   2058974.259 9   1598428.76347  22176319.839    22176319.2134   22176329.3204
     -1732.181       -1349.751
  -2152299.726 9  -1657522.81146  23142930.406    23142929.9994   23142941.9554
      1120.383         873.026
  -2646059.938 9  -2048021.74048  21284599.122    21284598.6734   21284607.9514
      1706.893        1330.046
  -2304795.986 9  -1773420.74849  20164998.747    20164998.2524   20165006.3294
      1261.584         983.052
   2674259.640 9   2078112.32047  22081122.326    22081121.5654   22081131.8684
     -2210.564       -1722.517
  -4529769.383 9  -3516409.73246  22915218.958    22915218.1834   22915230.1894
      3092.838        2410.004
  -3762864.124 9  -2922500.55846  23421756.598    23421755.9784   23421767.8884
      2690.812        2096.737
  -4779389.768 9  -3423758.81445  24280485.634    24280485.4874   24280497.8744
      3743.695        2917.165
   4278249.394 9   3314533.62645  24700534.899    24700534.5234   24700550.4254
     -3192.792       -2487.890
 80  4 14 20 22 50.0000000  0  9G01G03G19G18G16G31G27G13G14          0.000242571
   2076319.253 9   1611944.30647  22179620.517    22179619.8964   22179630.0034
     -1736.539       -1353.147
  -2163472.422 9  -1666228.80946  23140804.336    23140803.8814   23140815.8954
      1114.430         868.387
  -2663115.499 9  -2061311.77448  21281353.557    21281353.1124   21281362.3704
      1704.520        1328.197
  -2317381.190 9  -1783227.40049  20162603.867    20162603.3694   20162611.4444
      1255.752         978.508
   2696390.043 9   2095356.74947  22085333.644    22085332.8794   22085343.1774
     -2215.208       -1726.136
  -4560675.965 9  -3540492.74046  22909337.609    22909336.8174   22909348.8204
      3088.797        2406.855
  -3789765.007 9  -2943462.24346  23416637.474    23416636.8624   23416648.7734
      2689.648        2095.830
  -4816819.338 9  -3452924.68145  24273362.989    24273362.8364   24273375.2064
      3742.616        2916.324
   4310180.530 9   3339414.92146  24706611.295    24706610.9164   24706626.8314
     -3193.121       -2488.146
 80  4 14 20 23  0.0000000  0  9G01G03G19G18G16G31G27G13G14          0.000239040
   2093704.662 9   1625491.33947  22182928.883    22182928.2584   22182938.3624
     -1740.229       -1356.023
  -2174590.282 9  -1674892.07846  23138688.690    23138688.2224   23138700.2204
      1109.399         864.467
  -2680151.316 9  -2074586.42548  21278111.746    21278111.2944   21278120.5624
      1702.901        1326.936
  -2329911.851 9  -1792991.55349  20160219.369    20160218.8694   20160226.9444
      1250.683         974.558
   2718562.499 9   2112633.94047  22089552.952    22089552.1954   22089562.5004
     -2218.984       -1729.078
  -4591546.712 9  -3564547.82846  22903463.093    22903462.2904   22903474.2664
      3085.669        2404.417
  -3816658.447 9  -2964418.12746  23411519.748    23411519.1764   23411531.1184
      2689.297        2095.556
  -4854242.082 9  -3482085.21745  24266241.668    24266241.5494   24266253.8524
      3742.326        2916.098
   4342110.146 9   3364295.03346  24712687.410    24712687.0314   24712702.9444
     -3192.505       -2487.666
 80  4 14 20 23 10.0000000  0  9G01G03G19G18G16G31G27G13G14          0.000235509
   2111130.572 9   1639069.93047  22186244.960    22186244.3334   22186254.4394
     -1744.764       -1359.556
  -2185653.529 9  -1683512.79046  23136583.423    23136582.9554   23136594.9764
      1103.419         859.807
  -2697167.930 9  -2087846.11648  21274873.596    21274873.1454   21274882.4084
      1700.609        1325.150
  -2342387.780 9  -1802713.05649  20157845.273    20157844.7714   20157852.8604
      1244.716         969.909
   2740775.542 9   2129942.75947  22093779.999    22093779.2274   22093789.5554
     -2223.418       -1732.534
  -4622383.191 9  -3588576.20946  22897595.060    22897594.2834   22897606.2304
      3081.821        2401.419
  -3843544.595 9  -2985368.42546  23406403.550    23406402.9534   23406414.7854
      2688.134        2094.650
  -4891658.042 9  -3511240.47145  24259121.631    24259121.4934   24259133.7844
      3741.204        2915.224
   4374036.596 9   3389172.67545  24718762.899    24718762.5454   24718778.4404
     -3192.575       -2487.721
 80  4 14 20 23 20.0000000  0  9G01G03G19G18G16G31G27G13G14          0.000231978
   2128597.435 9   1652680.44047  22189568.820    22189568.1984   22189578.3014
     -1748.287       -1362.302
  -2196660.249 9  -1692089.46246  23134488.939    23134488.4474   23134500.4554
      1098.261         855.788
  -2714165.182 9  -2101090.72148  21271639.143    21271638.6654   21271647.9314
      1699.199        1324.051
  -2354807.376 9  -1812390.66449  20155481.897    20155481.4044   20155489.4774
      1239.542         965.877
   2763029.202 9   2147283.23347  22098014.775    22098013.9924   22098024.3324
     -2226.946       -1735.283
  -4653184.176 9  -3612576.95546  22891733.815    22891733.0204   22891744.9574
      3078.718        2399.001
  -3870421.921 9  -3006311.73247  23401288.931    23401288.3324   23401300.2074
      2687.668        2094.287
  -4929066.838 9  -3540390.14245  24252002.935    24252002.7624   24252015.0804
      3741.039        2915.095
   4405960.441 9   3414048.28645  24724837.923    24724837.5224   24724853.4424
     -3191.808       -2487.123
